| time (UTC) | temp F | wind direction | speed MPH | gust MPH | rain 1hr in | rain 24hr in | rain mn in | humidity % | barometer mb |
| 20260506015120 | 51 | 22 | 2.0 | 6.0 | 0.08 | 0.11 | 0.11 | 98 | 1006.9 |
| 20260506014935 | 51 | 45 | 2.0 | 5.0 | 0.08 | 0.11 | 0.11 | 98 | 1006.9 |
| 20260506014742 | 51 | 45 | 2.0 | 5.0 | 0.08 | 0.11 | 0.11 | 98 | 1006.9 |
| 20260506014541 | 51 | 22 | 2.0 | 5.0 | 0.08 | 0.11 | 0.11 | 98 | 1006.9 |
| 20260506014405 | 51 | 45 | 2.0 | 4.0 | 0.06 | 0.09 | 0.09 | 98 | 1006.9 |
| 20260506014220 | 51 | 45 | 2.0 | 5.0 | 0.06 | 0.09 | 0.09 | 98 | 1006.9 |
| 20260506014148 | 51 | 45 | 2.0 | 5.0 | 0.06 | 0.09 | 0.09 | 98 | 1006.8 |
| 20260506014040 | 51 | 45 | 3.0 | 5.0 | 0.06 | 0.09 | 0.09 | 98 | 1006.9 |
| 20260506013853 | 51 | 22 | 3.0 | 5.0 | 0.06 | 0.08 | 0.08 | 98 | 1006.9 |
| 20260506013700 | 51 | 22 | 3.0 | 6.0 | 0.06 | 0.08 | 0.08 | 98 | 1006.9 |
| 20260506013500 | 51 | 22 | 4.0 | 7.0 | 0.06 | 0.08 | 0.08 | 98 | 1006.9 |
| 20260506013315 | 51 | 22 | 4.0 | 7.0 | 0.06 | 0.08 | 0.08 | 98 | 1006.9 |
| 20260506013134 | 52 | 22 | 5.0 | 7.0 | 0.06 | 0.08 | 0.08 | 98 | 1006.9 |
| 20260506012942 | 52 | 45 | 5.0 | 7.0 | 0.05 | 0.06 | 0.06 | 98 | 1006.8 |
| 20260506012745 | 52 | 22 | 5.0 | 9.0 | 0.05 | 0.06 | 0.06 | 98 | 1007.0 |
| 20260506012602 | 52 | 68 | 4.0 | 9.0 | 0.05 | 0.06 | 0.06 | 98 | 1006.9 |
| 20260506012526 | 52 | 22 | 4.0 | 9.0 | 0.05 | 0.06 | 0.06 | 98 | 1006.9 |
| 20260506012405 | 52 | 45 | 3.0 | 9.0 | 0.05 | 0.06 | 0.06 | 98 | 1007.0 |
| 20260506012210 | 52 | 45 | 3.0 | 9.0 | 0.05 | 0.06 | 0.06 | 98 | 1007.0 |
| 20260506012030 | 52 | 45 | 3.0 | 9.0 | 0.05 | 0.06 | 0.06 | 98 | 1007.0 |
| 20260506011852 | 52 | 315 | 2.0 | 7.0 | 0.03 | 0.05 | 0.05 | 98 | 1007.0 |
| 20260506011705 | 52 | 22 | 3.0 | 7.0 | 0.03 | 0.05 | 0.05 | 98 | 1007.1 |
| 20260506011505 | 52 | 22 | 3.0 | 7.0 | 0.03 | 0.05 | 0.05 | 98 | 1007.2 |
| 20260506011322 | 52 | 248 | 3.0 | 7.0 | 0.05 | 0.05 | 0.05 | 98 | 1007.0 |
| 20260506011145 | 52 | 45 | 3.0 | 6.0 | 0.05 | 0.05 | 0.05 | 98 | 1007.1 |
| 20260506010955 | 52 | 22 | 3.0 | 6.0 | 0.05 | 0.05 | 0.05 | 98 | 1007.1 |
| 20260506010818 | 52 | 68 | 3.0 | 6.0 | 0.05 | 0.05 | 0.05 | 98 | 1007.2 |
| 20260506010625 | 52 | 45 | 3.0 | 8.0 | 0.05 | 0.05 | 0.05 | 98 | 1007.2 |
| 20260506010445 | 52 | 45 | 3.0 | 8.0 | 0.05 | 0.05 | 0.05 | 98 | 1007.3 |
| 20260506010255 | 52 | 22 | 3.0 | 8.0 | 0.03 | 0.03 | 0.03 | 98 | 1007.2 |
| 20260506010055 | 52 | 90 | 3.0 | 8.0 | 0.03 | 0.03 | 0.03 | 98 | 1007.2 |
| 20260506005857 | 52 | 45 | 3.0 | 8.0 | 0.03 | 0.03 | 0.03 | 98 | 1007.3 |
| 20260506005710 | 52 | 22 | 4.0 | 8.0 | 0.03 | 0.03 | 0.03 | 98 | 1007.3 |
| 20260506005527 | 52 | 22 | 3.0 | 7.0 | 0.03 | 0.03 | 0.03 | 98 | 1007.3 |
| 20260506005348 | 52 | 22 | 2.0 | 7.0 | 0.03 | 0.03 | 0.03 | 98 | 1007.4 |
| 20260506005210 | 52 | 45 | 2.0 | 7.0 | 0.03 | 0.03 | 0.03 | 98 | 1007.4 |
| 20260506005136 | 52 | 338 | 2.0 | 7.0 | 0.03 | 0.03 | 0.03 | 98 | 1007.3 |
| 20260506005010 | 52 | 22 | 2.0 | 7.0 | 0.03 | 0.03 | 0.03 | 98 | 1007.3 |
| 20260506004811 | 52 | 90 | 2.0 | 7.0 | 0.03 | 0.03 | 0.03 | 98 | 1007.4 |
| 20260506004620 | 52 | 22 | 2.0 | 5.0 | 0.03 | 0.03 | 0.03 | 98 | 1007.4 |
| 20260506004435 | 52 | 45 | 2.0 | 5.0 | 0.03 | 0.03 | 0.03 | 98 | 1007.4 |
| 20260506004248 | 52 | 45 | 2.0 | 7.0 | 0.03 | 0.03 | 0.03 | 98 | 1007.5 |
| 20260506004105 | 52 | 22 | 2.0 | 7.0 | 0.03 | 0.03 | 0.03 | 98 | 1007.5 |
| 20260506003925 | 52 | 68 | 2.0 | 5.0 | 0.03 | 0.03 | 0.03 | 98 | 1007.6 |
| 20260506003735 | 52 | 68 | 2.0 | 6.0 | 0.03 | 0.03 | 0.03 | 97 | 1007.6 |
| 20260506003550 | 52 | 22 | 2.0 | 6.0 | 0.02 | 0.02 | 0.02 | 97 | 1007.5 |
| 20260506003357 | 52 | 22 | 2.0 | 6.0 | 0.02 | 0.02 | 0.02 | 97 | 1007.6 |
| 20260506003215 | 52 | 45 | 2.0 | 5.0 | 0.02 | 0.02 | 0.02 | 97 | 1007.6 |
| 20260506003030 | 52 | 45 | 2.0 | 5.0 | 0.02 | 0.02 | 0.02 | 97 | 1007.6 |
| 20260506002840 | 52 | 45 | 2.0 | 5.0 | 0.02 | 0.02 | 0.02 | 97 | 1007.6 |
| 20260506002655 | 52 | 338 | 2.0 | 5.0 | 0.02 | 0.02 | 0.02 | 97 | 1007.6 |
| 20260506002517 | 52 | 45 | 2.0 | 6.0 | 0.02 | 0.02 | 0.02 | 97 | 1007.7 |
| 20260506002322 | 52 | 45 | 2.0 | 6.0 | 0.02 | 0.02 | 0.02 | 97 | 1007.6 |
| 20260506002130 | 52 | 22 | 2.0 | 6.0 | 0.02 | 0.02 | 0.02 | 97 | 1007.6 |
| 20260506001937 | 53 | 22 | 2.0 | 5.0 | 0.02 | 0.02 | 0.02 | 97 | 1007.7 |
| 20260506001845 | 53 | 22 | 1.0 | 5.0 | 0.02 | 0.02 | 0.02 | 97 | 1007.7 |
| 20260506001748 | 53 | 22 | 1.0 | 5.0 | 0.02 | 0.02 | 0.02 | 97 | 1007.7 |
| 20260506001605 | 53 | 45 | 1.0 | 5.0 | 0.02 | 0.02 | 0.02 | 97 | 1007.7 |
| 20260506001417 | 53 | 45 | 1.0 | 5.0 | 0.02 | 0.02 | 0.02 | 97 | 1007.6 |
| 20260506001234 | 53 | 45 | 1.0 | 5.0 | 0.02 | 0.02 | 0.02 | 97 | 1007.7 |
| 20260506001057 | 53 | 22 | 1.0 | 4.0 | 0.00 | 0.00 | 0.00 | 97 | 1007.8 |
| 20260506000910 | 53 | 45 | 2.0 | 4.0 | 0.00 | 0.00 | 0.00 | 97 | 1007.8 |
| 20260506000720 | 53 | 22 | 2.0 | 5.0 | 0.00 | 0.00 | 0.00 | 97 | 1007.9 |
| 20260506000535 | 53 | 45 | 2.0 | 6.0 | 0.00 | 0.00 | 0.00 | 97 | 1007.9 |
| 20260506000335 | 53 | 45 | 2.0 | 6.0 | 0.00 | 0.00 | 0.00 | 97 | 1007.9 |
| 20260506000304 | 53 | 45 | 2.0 | 6.0 | 0.00 | 0.00 | 0.00 | 97 | 1007.9 |
| 20260506000148 | 53 | 45 | 2.0 | 6.0 | 0.00 | 0.00 | 0.00 | 97 | 1007.9 |
| 20260505235950 | 53 | 45 | 2.0 | 5.0 | 0.00 | 0.00 | 0.00 | 97 | 1007.9 |
| 20260505235810 | 53 | 45 | 3.0 | 5.0 | 0.00 | 0.00 | 0.00 | 97 | 1007.9 |
| 20260505235620 | 53 | 45 | 3.0 | 6.0 | 0.00 | 0.00 | 0.00 | 97 | 1007.9 |
| 20260505235425 | 53 | 22 | 3.0 | 6.0 | 0.00 | 0.00 | 0.00 | 97 | 1007.9 |
| 20260505235245 | 53 | 45 | 3.0 | 6.0 | 0.00 | 0.00 | 0.00 | 96 | 1007.9 |
| 20260505235050 | 53 | 68 | 2.0 | 5.0 | 0.00 | 0.00 | 0.00 | 96 | 1008.1 |
| 20260505234905 | 53 | 22 | 2.0 | 5.0 | 0.00 | 0.00 | 0.00 | 96 | 1008.0 |
| 20260505234720 | 53 | 22 | 2.0 | 5.0 | 0.00 | 0.00 | 0.00 | 96 | 1008.0 |
| 20260505234540 | 53 | 45 | 2.0 | 5.0 | 0.00 | 0.00 | 0.00 | 96 | 1008.1 |
| 20260505234442 | 53 | 45 | 2.0 | 5.0 | 0.00 | 0.00 | 0.00 | 96 | 1008.1 |
| 20260505234350 | 53 | 45 | 2.0 | 7.0 | 0.00 | 0.00 | 0.00 | 96 | 1008.1 |
| 20260505234205 | 53 | 45 | 2.0 | 7.0 | 0.00 | 0.00 | 0.00 | 96 | 1008.0 |
| 20260505234030 | 53 | 22 | 2.0 | 7.0 | 0.00 | 0.00 | 0.00 | 96 | 1008.1 |
| 20260505233853 | 53 | 90 | 2.0 | 7.0 | 0.00 | 0.00 | 0.00 | 96 | 1008.0 |
| 20260505233715 | 53 | 338 | 2.0 | 5.0 | 0.00 | 0.00 | 0.00 | 96 | 1008.0 |
| 20260505233535 | 53 | 292 | 2.0 | 5.0 | 0.00 | 0.00 | 0.00 | 96 | 1008.0 |
| 20260505233337 | 53 | 0 | 2.0 | 5.0 | 0.00 | 0.00 | 0.00 | 96 | 1008.0 |
| 20260505233145 | 53 | 45 | 2.0 | 5.0 | 0.00 | 0.00 | 0.00 | 96 | 1008.1 |
| 20260505233000 | 53 | 45 | 3.0 | 7.0 | 0.00 | 0.00 | 0.00 | 96 | 1008.0 |
| 20260505232810 | 53 | 45 | 3.0 | 7.0 | 0.00 | 0.00 | 0.00 | 96 | 1008.1 |
| 20260505232717 | 53 | 338 | 3.0 | 7.0 | 0.00 | 0.00 | 0.00 | 96 | 1008.1 |
| 20260505232620 | 53 | 45 | 3.0 | 7.0 | 0.00 | 0.00 | 0.00 | 95 | 1008.1 |
| 20260505232425 | 53 | 45 | 2.0 | 5.0 | 0.00 | 0.00 | 0.00 | 95 | 1008.1 |
| 20260505232230 | 54 | 68 | 3.0 | 5.0 | 0.00 | 0.00 | 0.00 | 95 | 1008.1 |
| 20260505232048 | 54 | 68 | 4.0 | 5.0 | 0.00 | 0.00 | 0.00 | 95 | 1008.1 |
| 20260505231848 | 54 | 22 | 4.0 | 5.0 | 0.00 | 0.00 | 0.00 | 95 | 1008.1 |
| 20260505231655 | 54 | 22 | 3.0 | 8.0 | 0.00 | 0.00 | 0.00 | 95 | 1008.1 |
| 20260505231455 | 54 | 22 | 4.0 | 8.0 | 0.00 | 0.00 | 0.00 | 95 | 1008.1 |
| 20260505231310 | 54 | 45 | 3.0 | 8.0 | 0.00 | 0.00 | 0.00 | 95 | 1008.2 |
| 20260505231110 | 54 | 0 | 2.0 | 7.0 | 0.00 | 0.00 | 0.00 | 95 | 1008.3 |
| 20260505231046 | 54 | 338 | 2.0 | 5.0 | 0.00 | 0.00 | 0.00 | 94 | 1008.2 |
| 20260505230915 | 54 | 68 | 2.0 | 5.0 | 0.00 | 0.00 | 0.00 | 94 | 1008.2 |
| 20260505230715 | 54 | 22 | 2.0 | 4.0 | 0.00 | 0.00 | 0.00 | 94 | 1008.2 |
| 20260505230525 | 54 | 22 | 2.0 | 7.0 | 0.00 | 0.00 | 0.00 | 94 | 1008.2 |
| 20260505230325 | 54 | 90 | 1.0 | 2.0 | 0.00 | 0.00 | 0.00 | 94 | 1008.1 |
| 20260505230130 | 54 | 112 | 1.0 | 3.0 | 0.00 | 0.00 | 0.00 | 94 | 1008.2 |
| 20260505225934 | 54 | 22 | 1.0 | 3.0 | 0.00 | 0.00 | 0.00 | 93 | 1008.3 |
| 20260505225737 | 54 | 22 | 2.0 | 6.0 | 0.00 | 0.00 | 0.00 | 93 | 1008.2 |
| 20260505225557 | 54 | 22 | 2.0 | 6.0 | 0.00 | 0.00 | 0.00 | 93 | 1008.2 |
| 20260505225410 | 54 | 22 | 3.0 | 6.0 | 0.00 | 0.00 | 0.00 | 93 | 1008.3 |
| 20260505225317 | 54 | 22 | 3.0 | 7.0 | 0.00 | 0.00 | 0.00 | 93 | 1008.3 |
| 20260505225231 | 54 | 45 | 3.0 | 7.0 | 0.00 | 0.00 | 0.00 | 93 | 1008.2 |
| 20260505225053 | 54 | 45 | 4.0 | 8.0 | 0.00 | 0.00 | 0.00 | 93 | 1008.3 |
| 20260505224910 | 54 | 45 | 4.0 | 9.0 | 0.00 | 0.00 | 0.00 | 93 | 1008.3 |
| 20260505224715 | 54 | 45 | 4.0 | 9.0 | 0.00 | 0.00 | 0.00 | 92 | 1008.3 |
| 20260505224535 | 54 | 0 | 3.0 | 9.0 | 0.00 | 0.00 | 0.00 | 92 | 1008.3 |
| 20260505224337 | 54 | 22 | 3.0 | 7.0 | 0.00 | 0.00 | 0.00 | 92 | 1008.3 |
| 20260505224155 | 54 | 45 | 3.0 | 7.0 | 0.00 | 0.00 | 0.00 | 92 | 1008.4 |
| 20260505224015 | 54 | 22 | 2.0 | 5.0 | 0.00 | 0.00 | 0.00 | 92 | 1008.3 |
| 20260505223817 | 54 | 68 | 2.0 | 5.0 | 0.00 | 0.00 | 0.00 | 92 | 1008.3 |
| 20260505223655 | 54 | 45 | 2.0 | 4.0 | 0.00 | 0.00 | 0.00 | 92 | 1008.3 |
| 20260505223635 | 54 | 68 | 2.0 | 4.0 | 0.00 | 0.00 | 0.00 | 92 | 1008.4 |
| 20260505223457 | 54 | 68 | 3.0 | 5.0 | 0.00 | 0.00 | 0.00 | 92 | 1008.4 |
| 20260505223305 | 54 | 338 | 2.0 | 5.0 | 0.00 | 0.00 | 0.00 | 92 | 1008.5 |
| 20260505223115 | 54 | 315 | 2.0 | 6.0 | 0.00 | 0.00 | 0.00 | 92 | 1008.5 |
| 20260505222937 | 54 | 68 | 2.0 | 6.0 | 0.00 | 0.00 | 0.00 | 92 | 1008.5 |
| 20260505222739 | 54 | 22 | 2.0 | 6.0 | 0.00 | 0.00 | 0.00 | 92 | 1008.4 |
| 20260505222548 | 54 | 90 | 2.0 | 5.0 | 0.00 | 0.00 | 0.00 | 92 | 1008.5 |
| 20260505222355 | 54 | 22 | 2.0 | 5.0 | 0.00 | 0.00 | 0.00 | 92 | 1008.5 |
| 20260505222215 | 54 | 22 | 2.0 | 5.0 | 0.00 | 0.00 | 0.00 | 92 | 1008.5 |
| 20260505222015 | 54 | 68 | 2.0 | 4.0 | 0.00 | 0.00 | 0.00 | 92 | 1008.4 |
| 20260505221855 | 54 | 68 | 2.0 | 5.0 | 0.00 | 0.00 | 0.00 | 92 | 1008.4 |
| 20260505221817 | 54 | 68 | 2.0 | 5.0 | 0.00 | 0.00 | 0.00 | 92 | 1008.5 |
| 20260505221625 | 54 | 68 | 3.0 | 5.0 | 0.00 | 0.00 | 0.00 | 92 | 1008.4 |
| 20260505221425 | 54 | 45 | 3.0 | 5.0 | 0.00 | 0.00 | 0.00 | 92 | 1008.5 |
| 20260505221245 | 54 | 22 | 3.0 | 6.0 | 0.00 | 0.00 | 0.00 | 92 | 1008.5 |
| 20260505221053 | 54 | 90 | 3.0 | 5.0 | 0.00 | 0.00 | 0.00 | 92 | 1008.5 |
| 20260505220904 | 54 | 45 | 4.0 | 7.0 | 0.00 | 0.00 | 0.00 | 92 | 1008.5 |
| 20260505220717 | 54 | 45 | 4.0 | 7.0 | 0.00 | 0.00 | 0.00 | 92 | 1008.5 |
| 20260505220520 | 54 | 45 | 4.0 | 6.0 | 0.00 | 0.00 | 0.00 | 92 | 1008.5 |
| 20260505220330 | 54 | 0 | 3.0 | 9.0 | 0.00 | 0.00 | 0.00 | 92 | 1008.4 |
| 20260505220137 | 54 | 68 | 3.0 | 9.0 | 0.00 | 0.00 | 0.00 | 92 | 1008.4 |
| 20260505220112 | 54 | 68 | 3.0 | 9.0 | 0.00 | 0.00 | 0.00 | 92 | 1008.3 |
| 20260505215944 | 54 | 22 | 3.0 | 7.0 | 0.00 | 0.00 | 0.00 | 92 | 1008.4 |
| 20260505215748 | 54 | 270 | 3.0 | 7.0 | 0.00 | 0.00 | 0.00 | 92 | 1008.4 |
| 20260505215600 | 54 | 45 | 3.0 | 7.0 | 0.00 | 0.00 | 0.00 | 92 | 1008.4 |
| 20260505215410 | 54 | 45 | 3.0 | 9.0 | 0.00 | 0.00 | 0.00 | 92 | 1008.4 |
| 20260505215217 | 54 | 45 | 3.0 | 9.0 | 0.00 | 0.00 | 0.00 | 92 | 1008.5 |
| 20260505215034 | 54 | 135 | 4.0 | 9.0 | 0.00 | 0.00 | 0.00 | 92 | 1008.5 |
| 20260505214837 | 55 | 338 | 4.0 | 8.0 | 0.00 | 0.00 | 0.00 | 92 | 1008.5 |
| 20260505214700 | 55 | 45 | 3.0 | 8.0 | 0.00 | 0.00 | 0.00 | 92 | 1008.5 |
| 20260505214515 | 55 | 68 | 3.0 | 6.0 | 0.00 | 0.00 | 0.00 | 92 | 1008.5 |
| 20260505214325 | 55 | 22 | 3.0 | 6.0 | 0.00 | 0.00 | 0.00 | 92 | 1008.5 |
| 20260505214236 | 55 | 68 | 3.0 | 6.0 | 0.00 | 0.00 | 0.00 | 92 | 1008.5 |
| 20260505214135 | 55 | 68 | 3.0 | 6.0 | 0.00 | 0.00 | 0.00 | 92 | 1008.4 |
| 20260505213944 | 55 | 45 | 3.0 | 6.0 | 0.00 | 0.00 | 0.00 | 92 | 1008.5 |
| 20260505213745 | 55 | 45 | 3.0 | 6.0 | 0.00 | 0.00 | 0.00 | 92 | 1008.5 |
| 20260505213549 | 55 | 22 | 3.0 | 7.0 | 0.00 | 0.00 | 0.00 | 92 | 1008.4 |
| 20260505213410 | 55 | 45 | 4.0 | 7.0 | 0.00 | 0.00 | 0.00 | 92 | 1008.4 |
| 20260505213210 | 55 | 45 | 4.0 | 8.0 | 0.00 | 0.00 | 0.00 | 92 | 1008.5 |
| 20260505213025 | 55 | 22 | 3.0 | 8.0 | 0.00 | 0.00 | 0.00 | 92 | 1008.4 |
| 20260505212837 | 55 | 22 | 3.0 | 8.0 | 0.00 | 0.00 | 0.00 | 92 | 1008.5 |
| 20260505212645 | 55 | 45 | 3.0 | 7.0 | 0.00 | 0.00 | 0.00 | 92 | 1008.5 |
| 20260505212452 | 55 | 68 | 3.0 | 6.0 | 0.00 | 0.00 | 0.00 | 92 | 1008.5 |
| 20260505212404 | 55 | 22 | 3.0 | 6.0 | 0.00 | 0.00 | 0.00 | 92 | 1008.6 |
| 20260505212300 | 55 | 68 | 3.0 | 7.0 | 0.00 | 0.00 | 0.00 | 92 | 1008.6 |
| 20260505212122 | 55 | 90 | 4.0 | 7.0 | 0.00 | 0.00 | 0.00 | 92 | 1008.6 |
| 20260505211934 | 55 | 22 | 3.0 | 7.0 | 0.00 | 0.00 | 0.00 | 92 | 1008.6 |
| 20260505211740 | 55 | 68 | 3.0 | 7.0 | 0.00 | 0.00 | 0.00 | 92 | 1008.6 |
| 20260505211603 | 55 | 315 | 3.0 | 8.0 | 0.00 | 0.00 | 0.00 | 92 | 1008.5 |
| 20260505211425 | 55 | 45 | 3.0 | 8.0 | 0.00 | 0.00 | 0.00 | 92 | 1008.7 |
| 20260505211249 | 55 | 22 | 2.0 | 8.0 | 0.00 | 0.00 | 0.00 | 92 | 1008.8 |
| 20260505211112 | 55 | 45 | 2.0 | 6.0 | 0.00 | 0.00 | 0.00 | 92 | 1008.7 |
| 20260505210919 | 55 | 45 | 2.0 | 6.0 | 0.00 | 0.00 | 0.00 | 92 | 1008.7 |
| 20260505210841 | 55 | 45 | 2.0 | 6.0 | 0.00 | 0.00 | 0.00 | 92 | 1008.7 |
| 20260505210735 | 55 | 45 | 2.0 | 6.0 | 0.00 | 0.00 | 0.00 | 92 | 1008.7 |
| 20260505210545 | 55 | 112 | 2.0 | 4.0 | 0.00 | 0.00 | 0.00 | 92 | 1008.8 |
| 20260505210357 | 55 | 22 | 3.0 | 5.0 | 0.00 | 0.00 | 0.00 | 92 | 1008.8 |
| 20260505210215 | 55 | 22 | 3.0 | 6.0 | 0.00 | 0.00 | 0.00 | 92 | 1008.7 |
| 20260505210025 | 56 | 22 | 4.0 | 9.0 | 0.00 | 0.00 | 0.00 | 92 | 1008.7 |
| 20260505205839 | 56 | 22 | 4.0 | 9.0 | 0.00 | 0.00 | 0.00 | 92 | 1008.7 |
| 20260505205652 | 56 | 22 | 5.0 | 9.0 | 0.00 | 0.00 | 0.00 | 92 | 1008.6 |
| 20260505205505 | 56 | 270 | 4.0 | 9.0 | 0.00 | 0.00 | 0.00 | 92 | 1008.7 |
| 20260505205305 | 56 | 22 | 4.0 | 7.0 | 0.00 | 0.00 | 0.00 | 92 | 1008.7 |
| 20260505205130 | 56 | 22 | 4.0 | 7.0 | 0.00 | 0.00 | 0.00 | 92 | 1008.8 |
| 20260505204938 | 56 | 45 | 4.0 | 7.0 | 0.00 | 0.00 | 0.00 | 92 | 1008.8 |
| 20260505204738 | 56 | 22 | 3.0 | 6.0 | 0.00 | 0.00 | 0.00 | 92 | 1008.8 |
| 20260505204545 | 56 | 45 | 3.0 | 5.0 | 0.00 | 0.00 | 0.00 | 92 | 1008.8 |
| 20260505204345 | 56 | 22 | 3.0 | 5.0 | 0.00 | 0.00 | 0.00 | 92 | 1008.8 |
| 20260505204147 | 56 | 45 | 3.0 | 5.0 | 0.00 | 0.00 | 0.00 | 92 | 1008.8 |
| 20260505203950 | 56 | 68 | 2.0 | 8.0 | 0.00 | 0.00 | 0.00 | 91 | 1008.7 |
| 20260505203748 | 56 | 45 | 3.0 | 8.0 | 0.00 | 0.00 | 0.00 | 92 | 1008.8 |
| 20260505203601 | 56 | 45 | 3.0 | 8.0 | 0.00 | 0.00 | 0.00 | 91 | 1008.7 |
| 20260505203547 | 56 | 0 | 3.0 | 6.0 | 0.00 | 0.00 | 0.00 | 91 | 1008.7 |
| 20260505203425 | 56 | 45 | 3.0 | 8.0 | 0.00 | 0.00 | 0.00 | 91 | 1008.7 |
| 20260505203245 | 56 | 45 | 3.0 | 8.0 | 0.00 | 0.00 | 0.00 | 91 | 1008.7 |
| 20260505203110 | 56 | 68 | 4.0 | 8.0 | 0.00 | 0.00 | 0.00 | 91 | 1008.7 |
| 20260505202930 | 56 | 68 | 4.0 | 8.0 | 0.00 | 0.00 | 0.00 | 91 | 1008.6 |
| 20260505202750 | 56 | 22 | 4.0 | 7.0 | 0.00 | 0.00 | 0.00 | 91 | 1008.6 |
| 20260505202610 | 56 | 45 | 4.0 | 8.0 | 0.00 | 0.00 | 0.00 | 91 | 1008.6 |
| 20260505202430 | 56 | 0 | 4.0 | 8.0 | 0.00 | 0.00 | 0.00 | 91 | 1008.6 |
| 20260505202235 | 56 | 22 | 4.0 | 8.0 | 0.00 | 0.00 | 0.00 | 91 | 1008.6 |
| 20260505202038 | 56 | 22 | 3.0 | 6.0 | 0.00 | 0.00 | 0.00 | 91 | 1008.7 |
| 20260505201901 | 56 | 0 | 2.0 | 6.0 | 0.00 | 0.00 | 0.00 | 91 | 1008.7 |
| 20260505201848 | 56 | 68 | 2.0 | 6.0 | 0.00 | 0.00 | 0.00 | 91 | 1008.7 |
| 20260505201705 | 56 | 315 | 2.0 | 6.0 | 0.00 | 0.00 | 0.00 | 91 | 1008.7 |
| 20260505201508 | 56 | 22 | 2.0 | 7.0 | 0.00 | 0.00 | 0.00 | 91 | 1008.7 |
| 20260505201315 | 57 | 45 | 2.0 | 7.0 | 0.00 | 0.00 | 0.00 | 91 | 1008.6 |
| 20260505201120 | 57 | 45 | 3.0 | 7.0 | 0.00 | 0.00 | 0.00 | 91 | 1008.7 |
| 20260505200935 | 57 | 45 | 3.0 | 6.0 | 0.00 | 0.00 | 0.00 | 91 | 1008.7 |
| 20260505200755 | 57 | 22 | 4.0 | 7.0 | 0.00 | 0.00 | 0.00 | 91 | 1008.6 |
| 20260505200554 | 57 | 22 | 4.0 | 7.0 | 0.00 | 0.00 | 0.00 | 91 | 1008.6 |
| 20260505200401 | 57 | 22 | 4.0 | 7.0 | 0.00 | 0.00 | 0.00 | 91 | 1008.6 |
| 20260505200217 | 57 | 45 | 4.0 | 9.0 | 0.00 | 0.00 | 0.00 | 91 | 1008.6 |
| 20260505200056 | 57 | 22 | 3.0 | 9.0 | 0.00 | 0.00 | 0.00 | 91 | 1008.6 |
| 20260505200037 | 57 | 68 | 3.0 | 9.0 | 0.00 | 0.00 | 0.00 | 91 | 1008.6 |
| 20260505195853 | 57 | 45 | 3.0 | 9.0 | 0.00 | 0.00 | 0.00 | 90 | 1008.6 |
| 20260505195657 | 57 | 90 | 3.0 | 6.0 | 0.00 | 0.00 | 0.00 | 90 | 1008.6 |
| 20260505195458 | 57 | 68 | 3.0 | 6.0 | 0.00 | 0.00 | 0.00 | 90 | 1008.7 |
| 20260505195319 | 57 | 68 | 3.0 | 6.0 | 0.00 | 0.00 | 0.00 | 90 | 1008.6 |
| 20260505195125 | 57 | 22 | 3.0 | 5.0 | 0.00 | 0.00 | 0.00 | 90 | 1008.5 |
| 20260505194944 | 57 | 90 | 3.0 | 8.0 | 0.00 | 0.00 | 0.00 | 90 | 1008.5 |
| 20260505194757 | 57 | 68 | 3.0 | 8.0 | 0.00 | 0.00 | 0.00 | 90 | 1008.5 |
| 20260505194605 | 57 | 22 | 3.0 | 8.0 | 0.00 | 0.00 | 0.00 | 90 | 1008.5 |
| 20260505194420 | 57 | 270 | 2.0 | 8.0 | 0.00 | 0.00 | 0.00 | 90 | 1008.6 |
| 20260505194238 | 57 | 22 | 2.0 | 7.0 | 0.00 | 0.00 | 0.00 | 90 | 1008.6 |
| 20260505194206 | 57 | 338 | 2.0 | 6.0 | 0.00 | 0.00 | 0.00 | 90 | 1008.6 |
| 20260505194047 | 57 | 90 | 2.0 | 6.0 | 0.00 | 0.00 | 0.00 | 90 | 1008.7 |
| 20260505193910 | 57 | 22 | 2.0 | 6.0 | 0.00 | 0.00 | 0.00 | 90 | 1008.6 |
| 20260505193715 | 57 | 68 | 2.0 | 5.0 | 0.00 | 0.00 | 0.00 | 90 | 1008.6 |
| 20260505193535 | 57 | 45 | 2.0 | 5.0 | 0.00 | 0.00 | 0.00 | 90 | 1008.7 |
| 20260505193337 | 57 | 45 | 2.0 | 5.0 | 0.00 | 0.00 | 0.00 | 90 | 1008.6 |
| 20260505193148 | 57 | 45 | 2.0 | 4.0 | 0.00 | 0.00 | 0.00 | 90 | 1008.6 |
| 20260505192955 | 58 | 22 | 3.0 | 4.0 | 0.00 | 0.00 | 0.00 | 90 | 1008.5 |
| 20260505192810 | 58 | 22 | 3.0 | 3.0 | 0.00 | 0.00 | 0.00 | 90 | 1008.5 |
| 20260505192630 | 58 | 68 | 4.0 | 8.0 | 0.00 | 0.00 | 0.00 | 90 | 1008.6 |
| 20260505192529 | 58 | 68 | 4.0 | 9.0 | 0.00 | 0.00 | 0.00 | 90 | 1008.6 |
| 20260505192443 | 58 | 68 | 4.0 | 9.0 | 0.00 | 0.00 | 0.00 | 90 | 1008.5 |
| 20260505192255 | 58 | 68 | 4.0 | 9.0 | 0.00 | 0.00 | 0.00 | 89 | 1008.5 |
| 20260505192107 | 58 | 68 | 4.0 | 9.0 | 0.00 | 0.00 | 0.00 | 89 | 1008.5 |
| 20260505191914 | 58 | 45 | 4.0 | 6.0 | 0.00 | 0.00 | 0.00 | 89 | 1008.5 |
| 20260505191725 | 58 | 45 | 4.0 | 6.0 | 0.00 | 0.00 | 0.00 | 89 | 1008.4 |
| 20260505191539 | 58 | 22 | 4.0 | 6.0 | 0.00 | 0.00 | 0.00 | 89 | 1008.4 |
| 20260505191350 | 58 | 22 | 4.0 | 6.0 | 0.00 | 0.00 | 0.00 | 89 | 1008.4 |
| 20260505191155 | 58 | 22 | 4.0 | 6.0 | 0.00 | 0.00 | 0.00 | 89 | 1008.3 |
| 20260505191005 | 58 | 22 | 4.0 | 9.0 | 0.00 | 0.00 | 0.00 | 89 | 1008.4 |
| 20260505190805 | 59 | 22 | 5.0 | 11.0 | 0.00 | 0.00 | 0.00 | 89 | 1008.3 |
| 20260505190717 | 59 | 45 | 4.0 | 9.0 | 0.00 | 0.00 | 0.00 | 88 | 1008.4 |
| 20260505190610 | 59 | 338 | 4.0 | 7.0 | 0.00 | 0.00 | 0.00 | 88 | 1008.3 |
| 20260505190414 | 59 | 315 | 4.0 | 8.0 | 0.00 | 0.00 | 0.00 | 88 | 1008.4 |
| 20260505190220 | 59 | 22 | 3.0 | 8.0 | 0.00 | 0.00 | 0.00 | 88 | 1008.4 |
| 20260505190030 | 59 | 22 | 2.0 | 8.0 | 0.00 | 0.00 | 0.00 | 88 | 1008.4 |
| 20260505185835 | 59 | 135 | 2.0 | 5.0 | 0.00 | 0.00 | 0.00 | 88 | 1008.5 |
| 20260505185646 | 59 | 22 | 2.0 | 5.0 | 0.00 | 0.00 | 0.00 | 87 | 1008.4 |
| 20260505185508 | 59 | 338 | 3.0 | 3.0 | 0.00 | 0.00 | 0.00 | 87 | 1008.5 |
| 20260505185317 | 59 | 338 | 3.0 | 8.0 | 0.00 | 0.00 | 0.00 | 87 | 1008.4 |
| 20260505185130 | 59 | 22 | 4.0 | 8.0 | 0.00 | 0.00 | 0.00 | 87 | 1008.3 |
| 20260505185106 | 59 | 22 | 4.0 | 8.0 | 0.00 | 0.00 | 0.00 | 87 | 1008.3 |
| 20260505184955 | 59 | 22 | 4.0 | 8.0 | 0.00 | 0.00 | 0.00 | 87 | 1008.4 |
| 20260505184801 | 60 | 22 | 5.0 | 8.0 | 0.00 | 0.00 | 0.00 | 87 | 1008.3 |
| 20260505184615 | 60 | 68 | 5.0 | 8.0 | 0.00 | 0.00 | 0.00 | 87 | 1008.3 |
| 20260505184425 | 60 | 22 | 5.0 | 8.0 | 0.00 | 0.00 | 0.00 | 87 | 1008.3 |
| 20260505184230 | 60 | 22 | 4.0 | 8.0 | 0.00 | 0.00 | 0.00 | 86 | 1008.3 |
| 20260505184040 | 60 | 338 | 4.0 | 7.0 | 0.00 | 0.00 | 0.00 | 86 | 1008.3 |
| 20260505183857 | 60 | 68 | 4.0 | 7.0 | 0.00 | 0.00 | 0.00 | 86 | 1008.3 |
| 20260505183715 | 60 | 45 | 3.0 | 7.0 | 0.00 | 0.00 | 0.00 | 86 | 1008.1 |
| 20260505183518 | 60 | 45 | 3.0 | 6.0 | 0.00 | 0.00 | 0.00 | 86 | 1008.2 |
| 20260505183320 | 60 | 68 | 3.0 | 6.0 | 0.00 | 0.00 | 0.00 | 86 | 1008.1 |
| 20260505183222 | 60 | 68 | 3.0 | 6.0 | 0.00 | 0.00 | 0.00 | 85 | 1008.1 |
| 20260505183137 | 60 | 45 | 3.0 | 6.0 | 0.00 | 0.00 | 0.00 | 85 | 1008.2 |
| 20260505183000 | 60 | 90 | 3.0 | 6.0 | 0.00 | 0.00 | 0.00 | 85 | 1008.1 |
| 20260505182809 | 60 | 68 | 3.0 | 6.0 | 0.00 | 0.00 | 0.00 | 85 | 1008.2 |
| 20260505182630 | 60 | 90 | 4.0 | 9.0 | 0.00 | 0.00 | 0.00 | 85 | 1008.1 |
| 20260505182435 | 61 | 68 | 4.0 | 9.0 | 0.00 | 0.00 | 0.00 | 85 | 1008.1 |
| 20260505182254 | 61 | 45 | 4.0 | 9.0 | 0.00 | 0.00 | 0.00 | 85 | 1008.2 |
| 20260505182055 | 61 | 68 | 3.0 | 9.0 | 0.00 | 0.00 | 0.00 | 85 | 1008.2 |
| 20260505181900 | 61 | 90 | 4.0 | 9.0 | 0.00 | 0.00 | 0.00 | 85 | 1008.3 |
| 20260505181708 | 61 | 22 | 4.0 | 9.0 | 0.00 | 0.00 | 0.00 | 84 | 1008.2 |
| 20260505181656 | 61 | 22 | 4.0 | 7.0 | 0.00 | 0.00 | 0.00 | 85 | 1008.3 |
| 20260505181510 | 61 | 22 | 4.0 | 7.0 | 0.00 | 0.00 | 0.00 | 84 | 1008.2 |
| 20260505181325 | 61 | 22 | 4.0 | 9.0 | 0.00 | 0.00 | 0.00 | 84 | 1008.3 |
| 20260505181135 | 61 | 22 | 5.0 | 9.0 | 0.00 | 0.00 | 0.00 | 84 | 1008.3 |
| 20260505180955 | 61 | 22 | 4.0 | 9.0 | 0.00 | 0.00 | 0.00 | 84 | 1008.3 |
| 20260505180815 | 61 | 45 | 3.0 | 7.0 | 0.00 | 0.00 | 0.00 | 84 | 1008.3 |
| 20260505180635 | 61 | 45 | 3.0 | 6.0 | 0.00 | 0.00 | 0.00 | 84 | 1008.4 |
| 20260505180455 | 61 | 68 | 4.0 | 6.0 | 0.00 | 0.00 | 0.00 | 84 | 1008.3 |
| 20260505180255 | 62 | 338 | 3.0 | 5.0 | 0.00 | 0.00 | 0.00 | 83 | 1008.3 |
| 20260505180117 | 62 | 45 | 4.0 | 5.0 | 0.00 | 0.00 | 0.00 | 83 | 1008.3 |
| 20260505180042 | 62 | 45 | 4.0 | 5.0 | 0.00 | 0.00 | 0.00 | 83 | 1008.3 |
| 20260505175935 | 62 | 45 | 4.0 | 5.0 | 0.00 | 0.00 | 0.00 | 83 | 1008.3 |
| 20260505175800 | 62 | 45 | 4.0 | 7.0 | 0.00 | 0.00 | 0.00 | 83 | 1008.3 |
| 20260505175621 | 62 | 22 | 5.0 | 8.0 | 0.00 | 0.00 | 0.00 | 83 | 1008.3 |
| 20260505175430 | 62 | 0 | 5.0 | 8.0 | 0.00 | 0.00 | 0.00 | 83 | 1008.3 |
| 20260505175238 | 62 | 22 | 4.0 | 8.0 | 0.00 | 0.00 | 0.00 | 83 | 1008.3 |
| 20260505175050 | 62 | 68 | 4.0 | 9.0 | 0.00 | 0.00 | 0.00 | 83 | 1008.3 |
| 20260505174900 | 62 | 45 | 4.0 | 9.0 | 0.00 | 0.00 | 0.00 | 82 | 1008.3 |
| 20260505174710 | 62 | 22 | 3.0 | 9.0 | 0.00 | 0.00 | 0.00 | 82 | 1008.3 |
| 20260505174515 | 62 | 22 | 3.0 | 5.0 | 0.00 | 0.00 | 0.00 | 82 | 1008.3 |
| 20260505174330 | 62 | 22 | 3.0 | 5.0 | 0.00 | 0.00 | 0.00 | 82 | 1008.3 |
| 20260505174204 | 62 | 22 | 3.0 | 5.0 | 0.00 | 0.00 | 0.00 | 82 | 1008.3 |
| 20260505174135 | 62 | 338 | 3.0 | 5.0 | 0.00 | 0.00 | 0.00 | 82 | 1008.3 |
| 20260505173931 | 62 | 22 | 3.0 | 5.0 | 0.00 | 0.00 | 0.00 | 82 | 1008.2 |
| 20260505173755 | 62 | 22 | 3.0 | 5.0 | 0.00 | 0.00 | 0.00 | 82 | 1008.3 |
| 20260505173615 | 63 | 68 | 3.0 | 5.0 | 0.00 | 0.00 | 0.00 | 82 | 1008.2 |
| 20260505173415 | 63 | 22 | 3.0 | 6.0 | 0.00 | 0.00 | 0.00 | 81 | 1008.2 |
| 20260505173231 | 63 | 22 | 4.0 | 7.0 | 0.00 | 0.00 | 0.00 | 81 | 1008.2 |
| 20260505173046 | 63 | 45 | 4.0 | 7.0 | 0.00 | 0.00 | 0.00 | 81 | 1008.1 |
| 20260505172855 | 63 | 45 | 3.0 | 7.0 | 0.00 | 0.00 | 0.00 | 81 | 1008.2 |
| 20260505172658 | 63 | 45 | 4.0 | 7.0 | 0.00 | 0.00 | 0.00 | 80 | 1008.2 |
| 20260505172517 | 63 | 22 | 4.0 | 7.0 | 0.00 | 0.00 | 0.00 | 80 | 1008.2 |
| 20260505172443 | 63 | 22 | 4.0 | 7.0 | 0.00 | 0.00 | 0.00 | 80 | 1008.3 |
| 20260505172340 | 63 | 22 | 3.0 | 7.0 | 0.00 | 0.00 | 0.00 | 80 | 1008.3 |
| 20260505172150 | 63 | 22 | 3.0 | 7.0 | 0.00 | 0.00 | 0.00 | 81 | 1008.2 |
| 20260505172008 | 63 | 45 | 3.0 | 6.0 | 0.00 | 0.00 | 0.00 | 80 | 1008.4 |
| 20260505171817 | 63 | 0 | 4.0 | 6.0 | 0.00 | 0.00 | 0.00 | 80 | 1008.4 |
| 20260505171637 | 63 | 45 | 4.0 | 6.0 | 0.00 | 0.00 | 0.00 | 80 | 1008.3 |
| 20260505171458 | 63 | 45 | 4.0 | 6.0 | 0.00 | 0.00 | 0.00 | 80 | 1008.3 |
| 20260505171315 | 63 | 22 | 5.0 | 8.0 | 0.00 | 0.00 | 0.00 | 80 | 1008.2 |
| 20260505171115 | 64 | 45 | 4.0 | 9.0 | 0.00 | 0.00 | 0.00 | 80 | 1008.2 |
| 20260505170920 | 64 | 45 | 5.0 | 9.0 | 0.00 | 0.00 | 0.00 | 80 | 1008.3 |
| 20260505170838 | 64 | 22 | 5.0 | 9.0 | 0.00 | 0.00 | 0.00 | 79 | 1008.3 |
| 20260505170737 | 64 | 22 | 5.0 | 9.0 | 0.00 | 0.00 | 0.00 | 79 | 1008.3 |
| 20260505170538 | 64 | 45 | 5.0 | 10.0 | 0.00 | 0.00 | 0.00 | 79 | 1008.3 |
| 20260505170355 | 64 | 248 | 5.0 | 10.0 | 0.00 | 0.00 | 0.00 | 79 | 1008.3 |
| 20260505170215 | 64 | 338 | 4.0 | 10.0 | 0.00 | 0.00 | 0.00 | 78 | 1008.3 |
| 20260505170015 | 64 | 22 | 4.0 | 10.0 | 0.00 | 0.00 | 0.00 | 79 | 1008.3 |
| 20260505165835 | 64 | 338 | 5.0 | 10.0 | 0.00 | 0.00 | 0.00 | 79 | 1008.3 |
| 20260505165642 | 65 | 22 | 4.0 | 7.0 | 0.00 | 0.00 | 0.00 | 78 | 1008.3 |
| 20260505165505 | 65 | 45 | 4.0 | 7.0 | 0.00 | 0.00 | 0.00 | 77 | 1008.3 |
| 20260505165315 | 65 | 292 | 4.0 | 10.0 | 0.00 | 0.00 | 0.00 | 77 | 1008.4 |
| 20260505165132 | 65 | 338 | 4.0 | 10.0 | 0.00 | 0.00 | 0.00 | 77 | 1008.4 |
| 20260505164949 | 66 | 22 | 4.0 | 10.0 | 0.00 | 0.00 | 0.00 | 77 | 1008.3 |
| 20260505164755 | 66 | 338 | 4.0 | 8.0 | 0.00 | 0.00 | 0.00 | 76 | 1008.3 |
| 20260505164555 | 66 | 45 | 3.0 | 7.0 | 0.00 | 0.00 | 0.00 | 74 | 1008.3 |
| 20260505164400 | 66 | 315 | 3.0 | 7.0 | 0.00 | 0.00 | 0.00 | 74 | 1008.4 |
| 20260505164210 | 67 | 270 | 3.0 | 9.0 | 0.00 | 0.00 | 0.00 | 75 | 1008.4 |
| 20260505164010 | 67 | 45 | 3.0 | 9.0 | 0.00 | 0.00 | 0.00 | 74 | 1008.4 |
| 20260505163812 | 67 | 315 | 3.0 | 9.0 | 0.00 | 0.00 | 0.00 | 73 | 1008.4 |
| 20260505163618 | 67 | 22 | 3.0 | 5.0 | 0.00 | 0.00 | 0.00 | 72 | 1008.4 |
| 20260505163421 | 67 | 68 | 3.0 | 3.0 | 0.00 | 0.00 | 0.00 | 72 | 1008.5 |
| 20260505163343 | 67 | 225 | 3.0 | 3.0 | 0.00 | 0.00 | 0.00 | 71 | 1008.3 |
| 20260505163235 | 67 | 225 | 3.0 | 7.0 | 0.00 | 0.00 | 0.00 | 72 | 1008.4 |
| 20260505163055 | 67 | 45 | 3.0 | 7.0 | 0.00 | 0.00 | 0.00 | 72 | 1008.3 |
| 20260505162910 | 67 | 270 | 3.0 | 9.0 | 0.00 | 0.00 | 0.00 | 71 | 1008.4 |
| 20260505162725 | 67 | 45 | 3.0 | 9.0 | 0.00 | 0.00 | 0.00 | 72 | 1008.4 |
| 20260505162526 | 67 | 270 | 3.0 | 9.0 | 0.00 | 0.00 | 0.00 | 72 | 1008.4 |
| 20260505162338 | 67 | 22 | 4.0 | 8.0 | 0.00 | 0.00 | 0.00 | 71 | 1008.4 |
| 20260505162200 | 67 | 248 | 4.0 | 8.0 | 0.00 | 0.00 | 0.00 | 72 | 1008.3 |
| 20260505162010 | 67 | 22 | 4.0 | 8.0 | 0.00 | 0.00 | 0.00 | 72 | 1008.3 |
| 20260505161820 | 67 | 68 | 4.0 | 9.0 | 0.00 | 0.00 | 0.00 | 70 | 1008.4 |
| 20260505161620 | 68 | 68 | 4.0 | 9.0 | 0.00 | 0.00 | 0.00 | 71 | 1008.3 |
| 20260505161438 | 68 | 68 | 4.0 | 9.0 | 0.00 | 0.00 | 0.00 | 70 | 1008.4 |
| 20260505161245 | 68 | 338 | 3.0 | 7.0 | 0.00 | 0.00 | 0.00 | 70 | 1008.3 |
| 20260505161100 | 68 | 315 | 3.0 | 7.0 | 0.00 | 0.00 | 0.00 | 70 | 1008.3 |
| 20260505160910 | 67 | 22 | 3.0 | 6.0 | 0.00 | 0.00 | 0.00 | 68 | 1008.4 |
| 20260505160710 | 67 | 22 | 3.0 | 6.0 | 0.00 | 0.00 | 0.00 | 69 | 1008.4 |
| 20260505160508 | 67 | 270 | 3.0 | 7.0 | 0.00 | 0.00 | 0.00 | 69 | 1008.5 |
| 20260505160318 | 67 | 0 | 3.0 | 7.0 | 0.00 | 0.00 | 0.00 | 70 | 1008.5 |
| 20260505160130 | 67 | 22 | 3.0 | 6.0 | 0.00 | 0.00 | 0.00 | 70 | 1008.5 |
| 20260505153231 | 68 | 22 | 4.0 | 7.0 | 0.00 | 0.00 | 0.00 | 70 | 1008.7 |
| 20260505153035 | 68 | 22 | 3.0 | 7.0 | 0.00 | 0.00 | 0.00 | 70 | 1008.7 |
| 20260505152840 | 68 | 22 | 3.0 | 9.0 | 0.00 | 0.00 | 0.00 | 69 | 1008.8 |
| 20260505152658 | 68 | 45 | 3.0 | 9.0 | 0.00 | 0.00 | 0.00 | 70 | 1008.8 |
| 20260505152500 | 68 | 22 | 3.0 | 8.0 | 0.00 | 0.00 | 0.00 | 70 | 1008.7 |
| 20260505152315 | 68 | 292 | 3.0 | 5.0 | 0.00 | 0.00 | 0.00 | 70 | 1008.7 |
| 20260505152236 | 68 | 292 | 3.0 | 5.0 | 0.00 | 0.00 | 0.00 | 70 | 1008.7 |
| 20260505152117 | 68 | 45 | 3.0 | 5.0 | 0.00 | 0.00 | 0.00 | 69 | 1008.7 |
| 20260505151922 | 68 | 22 | 2.0 | 5.0 | 0.00 | 0.00 | 0.00 | 69 | 1008.7 |
| 20260505151727 | 68 | 292 | 2.0 | 4.0 | 0.00 | 0.00 | 0.00 | 69 | 1008.7 |
| 20260505151542 | 68 | 292 | 3.0 | 4.0 | 0.00 | 0.00 | 0.00 | 70 | 1008.7 |
| 20260505151345 | 68 | 270 | 3.0 | 6.0 | 0.00 | 0.00 | 0.00 | 70 | 1008.7 |
| 20260505151155 | 67 | 292 | 3.0 | 6.0 | 0.00 | 0.00 | 0.00 | 70 | 1008.7 |
| 20260505151015 | 67 | 45 | 3.0 | 8.0 | 0.00 | 0.00 | 0.00 | 70 | 1008.8 |
| 20260505150825 | 67 | 315 | 3.0 | 8.0 | 0.00 | 0.00 | 0.00 | 70 | 1008.7 |
| 20260505150630 | 67 | 0 | 3.0 | 8.0 | 0.00 | 0.00 | 0.00 | 70 | 1008.7 |
| 20260505150433 | 68 | 270 | 3.0 | 8.0 | 0.00 | 0.00 | 0.00 | 70 | 1008.8 |
| 20260505150255 | 68 | 315 | 4.0 | 5.0 | 0.00 | 0.00 | 0.00 | 70 | 1008.8 |
| 20260505150110 | 68 | 315 | 3.0 | 5.0 | 0.00 | 0.00 | 0.00 | 69 | 1008.7 |
| 20260505140652 | 71 | 45 | 5.0 | 11.0 | 0.00 | 0.00 | 0.00 | 66 | 1008.8 |
| 20260505140504 | 71 | 292 | 5.0 | 11.0 | 0.00 | 0.00 | 0.00 | 67 | 1008.9 |
| 20260505140316 | 71 | 22 | 4.0 | 11.0 | 0.00 | 0.00 | 0.00 | 66 | 1008.9 |
| 20260505140135 | 70 | 45 | 4.0 | 7.0 | 0.00 | 0.00 | 0.00 | 63 | 1008.9 |
| 20260505130215 | 71 | 270 | 3.0 | 7.0 | 0.00 | 0.00 | 0.00 | 65 | 1009.1 |
| 20260505124915 | 68 | 292 | 3.0 | 5.0 | 0.00 | 0.00 | 0.00 | 62 | 1009.2 |
| 20260505124725 | 68 | 292 | 3.0 | 5.0 | 0.00 | 0.00 | 0.00 | 63 | 1009.3 |
| 20260505124540 | 67 | 292 | 3.0 | 5.0 | 0.00 | 0.00 | 0.00 | 65 | 1009.2 |
| 20260505124405 | 67 | 292 | 3.0 | 5.0 | 0.00 | 0.00 | 0.00 | 67 | 1009.3 |
| 20260505124225 | 67 | 315 | 3.0 | 5.0 | 0.00 | 0.00 | 0.00 | 68 | 1009.3 |
| 20260505124035 | 67 | 315 | 3.0 | 5.0 | 0.00 | 0.00 | 0.00 | 68 | 1009.4 |
| 20260505123857 | 67 | 292 | 3.0 | 5.0 | 0.00 | 0.00 | 0.00 | 68 | 1009.4 |
| 20260505123800 | 67 | 292 | 4.0 | 5.0 | 0.00 | 0.00 | 0.00 | 70 | 1009.4 |
| 20260505123705 | 67 | 292 | 4.0 | 5.0 | 0.00 | 0.00 | 0.00 | 68 | 1009.4 |
| 20260505123515 | 67 | 270 | 4.0 | 8.0 | 0.00 | 0.00 | 0.00 | 70 | 1009.5 |
| 20260505123325 | 67 | 270 | 4.0 | 8.0 | 0.00 | 0.00 | 0.00 | 70 | 1009.5 |
| 20260505123135 | 68 | 292 | 4.0 | 8.0 | 0.00 | 0.00 | 0.00 | 70 | 1009.4 |
| 20260505122935 | 68 | 270 | 3.0 | 6.0 | 0.00 | 0.00 | 0.00 | 70 | 1009.4 |
| 20260505122745 | 68 | 315 | 2.0 | 5.0 | 0.00 | 0.00 | 0.00 | 69 | 1009.5 |
| 20260505122605 | 68 | 292 | 2.0 | 5.0 | 0.00 | 0.00 | 0.00 | 70 | 1009.5 |
| 20260505122425 | 68 | 248 | 2.0 | 5.0 | 0.00 | 0.00 | 0.00 | 70 | 1009.5 |
| 20260505122235 | 68 | 225 | 2.0 | 5.0 | 0.00 | 0.00 | 0.00 | 70 | 1009.5 |
| 20260505122050 | 68 | 292 | 2.0 | 5.0 | 0.00 | 0.00 | 0.00 | 68 | 1009.6 |
| 20260505121849 | 68 | 292 | 3.0 | 6.0 | 0.00 | 0.00 | 0.00 | 67 | 1009.5 |
| 20260505121704 | 68 | 292 | 3.0 | 6.0 | 0.00 | 0.00 | 0.00 | 68 | 1009.6 |
| 20260505121525 | 68 | 22 | 3.0 | 6.0 | 0.00 | 0.00 | 0.00 | 69 | 1009.6 |
| 20260505121345 | 67 | 45 | 3.0 | 6.0 | 0.00 | 0.00 | 0.00 | 70 | 1009.6 |
| 20260505121150 | 67 | 270 | 2.0 | 5.0 | 0.00 | 0.00 | 0.00 | 69 | 1009.6 |
| 20260505121012 | 67 | 292 | 2.0 | 4.0 | 0.00 | 0.00 | 0.00 | 71 | 1009.7 |
| 20260505120830 | 67 | 292 | 2.0 | 5.0 | 0.00 | 0.00 | 0.00 | 69 | 1009.7 |
| 20260505120645 | 67 | 292 | 2.0 | 5.0 | 0.00 | 0.00 | 0.00 | 70 | 1009.7 |
| 20260505120510 | 67 | 292 | 2.0 | 5.0 | 0.00 | 0.00 | 0.00 | 71 | 1009.6 |
| 20260505120335 | 67 | 270 | 2.0 | 5.0 | 0.00 | 0.00 | 0.00 | 72 | 1009.7 |
| 20260505120155 | 67 | 248 | 2.0 | 3.0 | 0.00 | 0.00 | 0.00 | 72 | 1009.7 |
| 20260505120015 | 67 | 248 | 2.0 | 5.0 | 0.00 | 0.00 | 0.00 | 72 | 1009.7 |
| 20260505115838 | 67 | 270 | 2.0 | 5.0 | 0.00 | 0.00 | 0.00 | 71 | 1009.6 |
| 20260505115638 | 67 | 270 | 2.0 | 5.0 | 0.00 | 0.00 | 0.00 | 72 | 1009.6 |
| 20260505115500 | 67 | 202 | 2.0 | 3.0 | 0.00 | 0.00 | 0.00 | 72 | 1009.7 |
| 20260505115315 | 67 | 202 | 2.0 | 5.0 | 0.00 | 0.00 | 0.00 | 72 | 1009.6 |
| 20260505115120 | 67 | 202 | 2.0 | 5.0 | 0.00 | 0.00 | 0.00 | 72 | 1009.6 |
| 20260505115005 | 67 | 202 | 3.0 | 5.0 | 0.00 | 0.00 | 0.00 | 72 | 1009.7 |
| 20260505114928 | 68 | 202 | 3.0 | 5.0 | 0.00 | 0.00 | 0.00 | 73 | 1009.7 |
| 20260505114735 | 68 | 225 | 2.0 | 5.0 | 0.00 | 0.00 | 0.00 | 73 | 1009.7 |
| 20260505114535 | 68 | 202 | 2.0 | 5.0 | 0.00 | 0.00 | 0.00 | 73 | 1009.6 |
| 20260505114355 | 68 | 202 | 2.0 | 5.0 | 0.00 | 0.00 | 0.00 | 71 | 1009.5 |
| 20260505114155 | 68 | 202 | 1.0 | 3.0 | 0.00 | 0.00 | 0.00 | 70 | 1009.5 |
| 20260505113956 | 68 | 112 | 1.0 | 3.0 | 0.00 | 0.00 | 0.00 | 70 | 1009.5 |
| 20260505113820 | 68 | 112 | 1.0 | 2.0 | 0.00 | 0.00 | 0.00 | 72 | 1009.5 |
| 20260505113635 | 67 | 158 | 1.0 | 2.0 | 0.00 | 0.00 | 0.00 | 73 | 1009.5 |
| 20260505113433 | 67 | 158 | 1.0 | 2.0 | 0.00 | 0.00 | 0.00 | 72 | 1009.6 |
| 20260505113258 | 68 | 135 | 1.0 | 3.0 | 0.00 | 0.00 | 0.00 | 72 | 1009.6 |
| 20260505113237 | 68 | 315 | 1.0 | 3.0 | 0.00 | 0.00 | 0.00 | 72 | 1009.5 |
| 20260505113046 | 68 | 315 | 1.0 | 5.0 | 0.00 | 0.00 | 0.00 | 73 | 1009.6 |
| 20260505112905 | 68 | 315 | 1.0 | 5.0 | 0.00 | 0.00 | 0.00 | 72 | 1009.7 |
| 20260505112725 | 68 | 45 | 2.0 | 5.0 | 0.00 | 0.00 | 0.00 | 74 | 1009.7 |
| 20260505112535 | 68 | 45 | 2.0 | 5.0 | 0.00 | 0.00 | 0.00 | 74 | 1009.7 |
| 20260505112348 | 68 | 45 | 2.0 | 5.0 | 0.00 | 0.00 | 0.00 | 74 | 1009.7 |
| 20260505112210 | 68 | 45 | 2.0 | 5.0 | 0.00 | 0.00 | 0.00 | 71 | 1009.7 |
| 20260505112015 | 68 | 45 | 1.0 | 5.0 | 0.00 | 0.00 | 0.00 | 75 | 1009.8 |
| 20260505111650 | 67 | 45 | 1.0 | 5.0 | 0.00 | 0.00 | 0.00 | 76 | 1009.8 |
| 20260505111505 | 67 | 22 | 1.0 | 5.0 | 0.00 | 0.00 | 0.00 | 72 | 1009.8 |
| 20260505111431 | 67 | 22 | 1.0 | 5.0 | 0.00 | 0.00 | 0.00 | 72 | 1009.8 |
| 20260505111325 | 67 | 22 | 0.0 | 4.0 | 0.00 | 0.00 | 0.00 | 71 | 1009.8 |
| 20260505111130 | 67 | 225 | 1.0 | 4.0 | 0.00 | 0.00 | 0.00 | 70 | 1009.9 |
| 20260505110933 | 67 | 180 | 1.0 | 2.0 | 0.00 | 0.00 | 0.00 | 72 | 1009.9 |
| 20260505110749 | 67 | 248 | 1.0 | 4.0 | 0.00 | 0.00 | 0.00 | 72 | 1009.8 |
| 20260505110557 | 67 | 248 | 1.0 | 5.0 | 0.00 | 0.00 | 0.00 | 73 | 1009.8 |
| 20260505110409 | 67 | 248 | 1.0 | 5.0 | 0.00 | 0.00 | 0.00 | 73 | 1009.9 |
| 20260505110233 | 67 | 270 | 1.0 | 5.0 | 0.00 | 0.00 | 0.00 | 72 | 1009.9 |
| 20260505101905 | 65 | 68 | 3.0 | 5.0 | 0.00 | 0.00 | 0.00 | 80 | 1010.1 |
| 20260505101715 | 65 | 68 | 3.0 | 6.0 | 0.00 | 0.00 | 0.00 | 78 | 1010.2 |
| 20260505101520 | 65 | 90 | 2.0 | 6.0 | 0.00 | 0.00 | 0.00 | 78 | 1010.2 |
| 20260505101335 | 65 | 45 | 2.0 | 6.0 | 0.00 | 0.00 | 0.00 | 78 | 1010.1 |
| 20260505101156 | 65 | 270 | 1.0 | 2.0 | 0.00 | 0.00 | 0.00 | 77 | 1010.1 |
| 20260505101000 | 65 | 270 | 1.0 | 3.0 | 0.00 | 0.00 | 0.00 | 76 | 1010.1 |
| 20260505100810 | 65 | 270 | 1.0 | 3.0 | 0.00 | 0.00 | 0.00 | 76 | 1010.1 |
| 20260505100620 | 65 | 270 | 2.0 | 3.0 | 0.00 | 0.00 | 0.00 | 76 | 1010.1 |
| 20260505100445 | 65 | 202 | 2.0 | 2.0 | 0.00 | 0.00 | 0.00 | 74 | 1010.1 |
| 20260505100336 | 65 | 68 | 2.0 | 2.0 | 0.00 | 0.00 | 0.00 | 74 | 1010.1 |
| 20260505100300 | 65 | 68 | 2.0 | 2.0 | 0.00 | 0.00 | 0.00 | 74 | 1010.2 |
| 20260505100115 | 65 | 68 | 2.0 | 3.0 | 0.00 | 0.00 | 0.00 | 75 | 1010.1 |
| 20260505095930 | 65 | 68 | 2.0 | 5.0 | 0.00 | 0.00 | 0.00 | 75 | 1010.1 |
| 20260505095745 | 65 | 68 | 2.0 | 5.0 | 0.00 | 0.00 | 0.00 | 76 | 1010.0 |
| 20260505095555 | 65 | 68 | 2.0 | 5.0 | 0.00 | 0.00 | 0.00 | 75 | 1010.0 |
| 20260505095415 | 65 | 90 | 1.0 | 5.0 | 0.00 | 0.00 | 0.00 | 75 | 1010.0 |
| 20260505095222 | 65 | 45 | 1.0 | 4.0 | 0.00 | 0.00 | 0.00 | 77 | 1010.0 |
| 20260505095030 | 65 | 45 | 0.0 | 4.0 | 0.00 | 0.00 | 0.00 | 76 | 1010.0 |
| 20260505094836 | 64 | 225 | 0.0 | 2.0 | 0.00 | 0.00 | 0.00 | 78 | 1010.1 |
| 20260505094746 | 64 | 225 | 0.0 | 2.0 | 0.00 | 0.00 | 0.00 | 79 | 1010.1 |
| 20260505094643 | 64 | 225 | 0.0 | 2.0 | 0.00 | 0.00 | 0.00 | 79 | 1010.1 |
| 20260505094455 | 64 | 225 | 0.0 | 2.0 | 0.00 | 0.00 | 0.00 | 81 | 1010.2 |
| 20260505094305 | 64 | 225 | 1.0 | 2.0 | 0.00 | 0.00 | 0.00 | 81 | 1010.2 |
| 20260505094125 | 64 | 225 | 1.0 | 2.0 | 0.00 | 0.00 | 0.00 | 84 | 1010.1 |
| 20260505093940 | 63 | 225 | 1.0 | 2.0 | 0.00 | 0.00 | 0.00 | 83 | 1010.1 |
| 20260505093745 | 64 | 225 | 1.0 | 2.0 | 0.00 | 0.00 | 0.00 | 83 | 1010.1 |
| 20260505093550 | 64 | 225 | 1.0 | 2.0 | 0.00 | 0.00 | 0.00 | 81 | 1010.1 |
| 20260505093408 | 64 | 225 | 1.0 | 2.0 | 0.00 | 0.00 | 0.00 | 80 | 1010.2 |
| 20260505093209 | 64 | 158 | 1.0 | 2.0 | 0.00 | 0.00 | 0.00 | 82 | 1010.1 |
| 20260505093131 | 64 | 158 | 1.0 | 2.0 | 0.00 | 0.00 | 0.00 | 80 | 1010.1 |
| 20260505093015 | 64 | 158 | 1.0 | 2.0 | 0.00 | 0.00 | 0.00 | 79 | 1010.2 |
| 20260505092830 | 64 | 90 | 1.0 | 4.0 | 0.00 | 0.00 | 0.00 | 80 | 1010.2 |
| 20260505092640 | 64 | 68 | 1.0 | 4.0 | 0.00 | 0.00 | 0.00 | 82 | 1010.1 |
| 20260505092500 | 63 | 68 | 1.0 | 4.0 | 0.00 | 0.00 | 0.00 | 80 | 1010.2 |
| 20260505092310 | 63 | 112 | 1.0 | 3.0 | 0.00 | 0.00 | 0.00 | 78 | 1010.2 |
| 20260505092115 | 63 | 68 | 1.0 | 2.0 | 0.00 | 0.00 | 0.00 | 81 | 1010.2 |
| 20260505091933 | 63 | 68 | 1.0 | 3.0 | 0.00 | 0.00 | 0.00 | 81 | 1010.2 |
| 20260505091756 | 63 | 68 | 1.0 | 3.0 | 0.00 | 0.00 | 0.00 | 81 | 1010.1 |
| 20260505091606 | 63 | 68 | 2.0 | 3.0 | 0.00 | 0.00 | 0.00 | 79 | 1010.1 |
| 20260505091426 | 63 | 68 | 1.0 | 4.0 | 0.00 | 0.00 | 0.00 | 83 | 1010.2 |
| 20260505091245 | 63 | 68 | 1.0 | 4.0 | 0.00 | 0.00 | 0.00 | 83 | 1010.1 |
| 20260505091105 | 63 | 68 | 1.0 | 5.0 | 0.00 | 0.00 | 0.00 | 82 | 1010.2 |
| 20260505090922 | 62 | 68 | 1.0 | 5.0 | 0.00 | 0.00 | 0.00 | 82 | 1010.1 |
| 20260505090745 | 62 | 68 | 1.0 | 5.0 | 0.00 | 0.00 | 0.00 | 83 | 1010.2 |
| 20260505090549 | 62 | 68 | 1.0 | 5.0 | 0.00 | 0.00 | 0.00 | 83 | 1010.2 |
| 20260505090350 | 62 | 68 | 2.0 | 3.0 | 0.00 | 0.00 | 0.00 | 84 | 1010.2 |
| 20260505090155 | 62 | 68 | 2.0 | 3.0 | 0.00 | 0.00 | 0.00 | 83 | 1010.2 |
| 20260505090012 | 62 | 68 | 3.0 | 5.0 | 0.00 | 0.00 | 0.00 | 82 | 1010.2 |
| 20260505085825 | 62 | 68 | 2.0 | 5.0 | 0.00 | 0.00 | 0.00 | 84 | 1010.2 |
| 20260505085719 | 62 | 68 | 2.0 | 5.0 | 0.00 | 0.00 | 0.00 | 83 | 1010.3 |
| 20260505085623 | 62 | 68 | 2.0 | 5.0 | 0.00 | 0.00 | 0.00 | 82 | 1010.3 |
| 20260505085442 | 62 | 90 | 2.0 | 5.0 | 0.00 | 0.00 | 0.00 | 84 | 1010.2 |
| 20260505085304 | 62 | 90 | 2.0 | 5.0 | 0.00 | 0.00 | 0.00 | 82 | 1010.2 |
| 20260505085110 | 61 | 90 | 2.0 | 5.0 | 0.00 | 0.00 | 0.00 | 83 | 1010.2 |
| 20260505084915 | 61 | 90 | 2.0 | 5.0 | 0.00 | 0.00 | 0.00 | 82 | 1010.2 |
| 20260505084716 | 61 | 90 | 2.0 | 4.0 | 0.00 | 0.00 | 0.00 | 81 | 1010.2 |
| 20260505084537 | 61 | 90 | 2.0 | 5.0 | 0.00 | 0.00 | 0.00 | 83 | 1010.3 |
| 20260505084400 | 61 | 180 | 2.0 | 5.0 | 0.00 | 0.00 | 0.00 | 83 | 1010.3 |
| 20260505084219 | 61 | 90 | 2.0 | 5.0 | 0.00 | 0.00 | 0.00 | 83 | 1010.3 |
| 20260505084033 | 62 | 112 | 1.0 | 5.0 | 0.00 | 0.00 | 0.00 | 83 | 1010.3 |
| 20260505083943 | 62 | 112 | 1.0 | 5.0 | 0.00 | 0.00 | 0.00 | 82 | 1010.3 |
| 20260505083840 | 62 | 68 | 1.0 | 5.0 | 0.00 | 0.00 | 0.00 | 84 | 1010.2 |
| 20260505083640 | 61 | 68 | 1.0 | 2.0 | 0.00 | 0.00 | 0.00 | 84 | 1010.2 |
| 20260505083500 | 61 | 68 | 1.0 | 3.0 | 0.00 | 0.00 | 0.00 | 84 | 1010.2 |
| 20260505083307 | 61 | 68 | 2.0 | 3.0 | 0.00 | 0.00 | 0.00 | 86 | 1010.2 |
| 20260505083120 | 61 | 68 | 2.0 | 3.0 | 0.00 | 0.00 | 0.00 | 87 | 1010.2 |
| 20260505082919 | 61 | 68 | 2.0 | 6.0 | 0.00 | 0.00 | 0.00 | 85 | 1010.3 |
| 20260505082745 | 61 | 68 | 3.0 | 6.0 | 0.00 | 0.00 | 0.00 | 85 | 1010.3 |
| 20260505082634 | 61 | 68 | 3.0 | 6.0 | 0.00 | 0.00 | 0.00 | 84 | 1010.3 |
| 20260505082415 | 61 | 68 | 3.0 | 6.0 | 0.00 | 0.00 | 0.00 | 83 | 1010.3 |
| 20260505082241 | 61 | 90 | 2.0 | 5.0 | 0.00 | 0.00 | 0.00 | 83 | 1010.3 |
| 20260505082224 | 61 | 90 | 2.0 | 5.0 | 0.00 | 0.00 | 0.00 | 86 | 1010.3 |
| 20260505082035 | 61 | 68 | 3.0 | 5.0 | 0.00 | 0.00 | 0.00 | 84 | 1010.3 |
| 20260505081840 | 61 | 68 | 2.0 | 5.0 | 0.00 | 0.00 | 0.00 | 84 | 1010.3 |
| 20260505081645 | 61 | 68 | 3.0 | 5.0 | 0.00 | 0.00 | 0.00 | 81 | 1010.3 |
| 20260505081450 | 62 | 68 | 3.0 | 5.0 | 0.00 | 0.00 | 0.00 | 82 | 1010.3 |
| 20260505081255 | 62 | 68 | 3.0 | 5.0 | 0.00 | 0.00 | 0.00 | 81 | 1010.3 |
| 20260505081105 | 62 | 68 | 2.0 | 5.0 | 0.00 | 0.00 | 0.00 | 80 | 1010.4 |
| 20260505080925 | 62 | 90 | 2.0 | 5.0 | 0.00 | 0.00 | 0.00 | 82 | 1010.4 |
| 20260505080729 | 62 | 68 | 2.0 | 4.0 | 0.00 | 0.00 | 0.00 | 81 | 1010.5 |
| 20260505080627 | 62 | 90 | 2.0 | 5.0 | 0.00 | 0.00 | 0.00 | 80 | 1010.4 |
| 20260505080550 | 62 | 90 | 2.0 | 5.0 | 0.00 | 0.00 | 0.00 | 80 | 1010.4 |
| 20260505080405 | 62 | 68 | 3.0 | 5.0 | 0.00 | 0.00 | 0.00 | 79 | 1010.4 |
| 20260505080222 | 62 | 68 | 3.0 | 5.0 | 0.00 | 0.00 | 0.00 | 79 | 1010.4 |
| 20260505080040 | 62 | 68 | 3.0 | 5.0 | 0.00 | 0.00 | 0.00 | 78 | 1010.4 |
| 20260505075854 | 62 | 158 | 2.0 | 6.0 | 0.00 | 0.00 | 0.00 | 78 | 1010.5 |
| 20260505075710 | 62 | 68 | 3.0 | 6.0 | 0.00 | 0.00 | 0.00 | 79 | 1010.5 |
| 20260505075522 | 62 | 68 | 3.0 | 6.0 | 0.00 | 0.00 | 0.00 | 79 | 1010.5 |
| 20260505075345 | 62 | 112 | 3.0 | 5.0 | 0.00 | 0.00 | 0.00 | 78 | 1010.5 |
| 20260505075200 | 62 | 180 | 3.0 | 6.0 | 0.00 | 0.00 | 0.00 | 78 | 1010.5 |
| 20260505075006 | 61 | 180 | 4.0 | 6.0 | 0.00 | 0.00 | 0.00 | 78 | 1010.6 |
| 20260505074830 | 61 | 90 | 3.0 | 6.0 | 0.00 | 0.00 | 0.00 | 78 | 1010.5 |
| 20260505074758 | 61 | 112 | 3.0 | 6.0 | 0.00 | 0.00 | 0.00 | 78 | 1010.5 |
| 20260505074645 | 61 | 180 | 3.0 | 6.0 | 0.00 | 0.00 | 0.00 | 79 | 1010.5 |
| 20260505074500 | 61 | 68 | 4.0 | 6.0 | 0.00 | 0.00 | 0.00 | 79 | 1010.5 |
| 20260505074315 | 61 | 90 | 4.0 | 5.0 | 0.00 | 0.00 | 0.00 | 79 | 1010.5 |
| 20260505074133 | 61 | 112 | 5.0 | 7.0 | 0.00 | 0.00 | 0.00 | 78 | 1010.5 |
| 20260505073950 | 61 | 180 | 4.0 | 7.0 | 0.00 | 0.00 | 0.00 | 79 | 1010.4 |
| 20260505073756 | 61 | 68 | 4.0 | 7.0 | 0.00 | 0.00 | 0.00 | 80 | 1010.5 |
| 20260505073610 | 61 | 68 | 4.0 | 7.0 | 0.00 | 0.00 | 0.00 | 80 | 1010.4 |
| 20260505073410 | 61 | 112 | 4.0 | 7.0 | 0.00 | 0.00 | 0.00 | 80 | 1010.4 |
| 20260505073235 | 61 | 90 | 3.0 | 7.0 | 0.00 | 0.00 | 0.00 | 79 | 1010.4 |
| 20260505073055 | 61 | 90 | 3.0 | 7.0 | 0.00 | 0.00 | 0.00 | 79 | 1010.3 |
| 20260505073017 | 61 | 68 | 3.0 | 7.0 | 0.00 | 0.00 | 0.00 | 78 | 1010.3 |
| 20260505072910 | 61 | 90 | 3.0 | 7.0 | 0.00 | 0.00 | 0.00 | 79 | 1010.3 |
| 20260505072720 | 61 | 68 | 3.0 | 7.0 | 0.00 | 0.00 | 0.00 | 79 | 1010.2 |
| 20260505072522 | 61 | 68 | 3.0 | 7.0 | 0.00 | 0.00 | 0.00 | 79 | 1010.3 |
| 20260505072325 | 61 | 90 | 3.0 | 5.0 | 0.00 | 0.00 | 0.00 | 80 | 1010.3 |
| 20260505072125 | 61 | 90 | 3.0 | 5.0 | 0.00 | 0.00 | 0.00 | 79 | 1010.3 |
| 20260505071940 | 61 | 68 | 3.0 | 5.0 | 0.00 | 0.00 | 0.00 | 79 | 1010.2 |
| 20260505071741 | 61 | 68 | 3.0 | 5.0 | 0.00 | 0.00 | 0.00 | 79 | 1010.2 |
| 20260505071549 | 61 | 68 | 3.0 | 5.0 | 0.00 | 0.00 | 0.00 | 79 | 1010.3 |
| 20260505071410 | 61 | 68 | 3.0 | 7.0 | 0.00 | 0.00 | 0.00 | 80 | 1010.2 |
| 20260505071224 | 61 | 68 | 3.0 | 7.0 | 0.00 | 0.00 | 0.00 | 80 | 1010.3 |
| 20260505071040 | 61 | 68 | 3.0 | 5.0 | 0.00 | 0.00 | 0.00 | 79 | 1010.2 |
| 20260505070843 | 61 | 68 | 4.0 | 5.0 | 0.00 | 0.00 | 0.00 | 80 | 1010.2 |
| 20260505070658 | 61 | 45 | 4.0 | 6.0 | 0.00 | 0.00 | 0.00 | 81 | 1010.3 |
| 20260505070500 | 61 | 90 | 4.0 | 6.0 | 0.00 | 0.00 | 0.00 | 80 | 1010.3 |
| 20260505070310 | 61 | 90 | 4.0 | 6.0 | 0.00 | 0.00 | 0.00 | 81 | 1010.3 |
| 20260505070108 | 61 | 68 | 3.0 | 6.0 | 0.00 | 0.00 | 0.00 | 81 | 1010.3 |
| 20260505065930 | 61 | 68 | 3.0 | 6.0 | 0.00 | 0.00 | 0.00 | 81 | 1010.2 |
| 20260505065733 | 60 | 68 | 3.0 | 7.0 | 0.00 | 0.00 | 0.00 | 80 | 1010.2 |
| 20260505065716 | 60 | 68 | 3.0 | 7.0 | 0.00 | 0.00 | 0.00 | 81 | 1010.2 |
| 20260505065535 | 60 | 68 | 3.0 | 7.0 | 0.00 | 0.00 | 0.00 | 80 | 1010.2 |
| 20260505065350 | 60 | 68 | 2.0 | 5.0 | 0.00 | 0.00 | 0.00 | 81 | 1010.3 |
| 20260505065157 | 60 | 90 | 2.0 | 5.0 | 0.00 | 0.00 | 0.00 | 81 | 1010.3 |
| 20260505065016 | 60 | 90 | 2.0 | 3.0 | 0.00 | 0.00 | 0.00 | 81 | 1010.3 |
| 20260505064835 | 60 | 90 | 2.0 | 6.0 | 0.00 | 0.00 | 0.00 | 81 | 1010.3 |
| 20260505064655 | 60 | 68 | 2.0 | 6.0 | 0.00 | 0.00 | 0.00 | 81 | 1010.2 |
| 20260505064505 | 60 | 68 | 2.0 | 6.0 | 0.00 | 0.00 | 0.00 | 81 | 1010.3 |
| 20260505064321 | 60 | 90 | 2.0 | 5.0 | 0.00 | 0.00 | 0.00 | 82 | 1010.3 |
| 20260505064144 | 60 | 90 | 3.0 | 5.0 | 0.00 | 0.00 | 0.00 | 83 | 1010.2 |
| 20260505063953 | 60 | 90 | 3.0 | 5.0 | 0.00 | 0.00 | 0.00 | 82 | 1010.2 |
| 20260505063942 | 60 | 68 | 3.0 | 5.0 | 0.00 | 0.00 | 0.00 | 82 | 1010.3 |
| 20260505063755 | 60 | 68 | 3.0 | 5.0 | 0.00 | 0.00 | 0.00 | 83 | 1010.3 |
| 20260505063600 | 59 | 68 | 3.0 | 7.0 | 0.00 | 0.00 | 0.00 | 84 | 1010.3 |
| 20260505063421 | 59 | 68 | 3.0 | 7.0 | 0.00 | 0.00 | 0.00 | 84 | 1010.3 |
| 20260505063225 | 59 | 68 | 2.0 | 7.0 | 0.00 | 0.00 | 0.00 | 84 | 1010.3 |
| 20260505063027 | 59 | 45 | 2.0 | 4.0 | 0.00 | 0.00 | 0.00 | 84 | 1010.3 |
| 20260505062836 | 59 | 68 | 3.0 | 5.0 | 0.00 | 0.00 | 0.00 | 84 | 1010.4 |
| 20260505062650 | 59 | 68 | 4.0 | 5.0 | 0.00 | 0.00 | 0.00 | 85 | 1010.3 |
| 20260505062505 | 59 | 68 | 4.0 | 7.0 | 0.00 | 0.00 | 0.00 | 84 | 1010.4 |
| 20260505062427 | 59 | 90 | 4.0 | 7.0 | 0.00 | 0.00 | 0.00 | 85 | 1010.4 |
| 20260505062304 | 59 | 68 | 4.0 | 8.0 | 0.00 | 0.00 | 0.00 | 85 | 1010.4 |
| 20260505062120 | 59 | 68 | 4.0 | 8.0 | 0.00 | 0.00 | 0.00 | 85 | 1010.4 |
| 20260505061935 | 59 | 68 | 4.0 | 8.0 | 0.00 | 0.00 | 0.00 | 85 | 1010.4 |
| 20260505061748 | 59 | 68 | 3.0 | 7.0 | 0.00 | 0.00 | 0.00 | 84 | 1010.5 |
| 20260505061605 | 59 | 68 | 2.0 | 5.0 | 0.00 | 0.00 | 0.00 | 85 | 1010.5 |
| 20260505061415 | 59 | 68 | 2.0 | 5.0 | 0.00 | 0.00 | 0.00 | 85 | 1010.5 |
| 20260505061225 | 59 | 68 | 2.0 | 5.0 | 0.00 | 0.00 | 0.00 | 86 | 1010.5 |
| 20260505061033 | 59 | 68 | 2.0 | 5.0 | 0.00 | 0.00 | 0.00 | 85 | 1010.5 |
| 20260505060851 | 59 | 45 | 2.0 | 5.0 | 0.00 | 0.00 | 0.00 | 86 | 1010.6 |
| 20260505060807 | 59 | 45 | 2.0 | 5.0 | 0.00 | 0.00 | 0.00 | 86 | 1010.6 |
| 20260505060705 | 59 | 68 | 2.0 | 5.0 | 0.00 | 0.00 | 0.00 | 86 | 1010.6 |
| 20260505060512 | 59 | 45 | 2.0 | 5.0 | 0.00 | 0.00 | 0.00 | 86 | 1010.6 |
| 20260505060335 | 58 | 45 | 2.0 | 5.0 | 0.00 | 0.00 | 0.00 | 86 | 1010.6 |
| 20260505060155 | 58 | 45 | 2.0 | 4.0 | 0.00 | 0.00 | 0.00 | 86 | 1010.7 |
| 20260505055958 | 58 | 45 | 2.0 | 5.0 | 0.00 | 0.00 | 0.00 | 87 | 1010.6 |
| 20260505055820 | 58 | 45 | 3.0 | 5.0 | 0.00 | 0.00 | 0.00 | 86 | 1010.6 |
| 20260505055630 | 58 | 68 | 3.0 | 5.0 | 0.00 | 0.00 | 0.00 | 87 | 1010.6 |
| 20260505055445 | 58 | 45 | 3.0 | 5.0 | 0.00 | 0.00 | 0.00 | 87 | 1010.6 |
| 20260505055255 | 58 | 68 | 3.0 | 6.0 | 0.00 | 0.00 | 0.00 | 87 | 1010.5 |
| 20260505055115 | 58 | 45 | 3.0 | 7.0 | 0.00 | 0.00 | 0.00 | 87 | 1010.6 |
| 20260505054934 | 58 | 45 | 3.0 | 7.0 | 0.00 | 0.00 | 0.00 | 87 | 1010.6 |
| 20260505054908 | 58 | 68 | 3.0 | 7.0 | 0.00 | 0.00 | 0.00 | 87 | 1010.6 |
| 20260505054740 | 58 | 68 | 3.0 | 8.0 | 0.00 | 0.00 | 0.00 | 88 | 1010.6 |
| 20260505054545 | 58 | 68 | 3.0 | 8.0 | 0.00 | 0.00 | 0.00 | 88 | 1010.7 |
| 20260505054405 | 58 | 45 | 3.0 | 8.0 | 0.00 | 0.00 | 0.00 | 88 | 1010.7 |
| 20260505054220 | 58 | 68 | 2.0 | 5.0 | 0.00 | 0.00 | 0.00 | 88 | 1010.6 |
| 20260505054035 | 58 | 45 | 2.0 | 5.0 | 0.00 | 0.00 | 0.00 | 88 | 1010.7 |
| 20260505053848 | 58 | 45 | 2.0 | 5.0 | 0.00 | 0.00 | 0.00 | 88 | 1010.7 |
| 20260505053656 | 58 | 45 | 2.0 | 5.0 | 0.00 | 0.00 | 0.00 | 88 | 1010.7 |
| 20260505053520 | 58 | 45 | 2.0 | 5.0 | 0.00 | 0.00 | 0.00 | 88 | 1010.7 |
| 20260505053343 | 58 | 45 | 2.0 | 6.0 | 0.00 | 0.00 | 0.00 | 88 | 1010.8 |
| 20260505053319 | 58 | 45 | 2.0 | 6.0 | 0.00 | 0.00 | 0.00 | 88 | 1010.8 |
| 20260505053130 | 58 | 68 | 3.0 | 6.0 | 0.00 | 0.00 | 0.00 | 89 | 1010.7 |
| 20260505052945 | 58 | 68 | 3.0 | 5.0 | 0.00 | 0.00 | 0.00 | 89 | 1010.7 |
| 20260505052800 | 58 | 90 | 2.0 | 7.0 | 0.00 | 0.00 | 0.00 | 89 | 1010.8 |
| 20260505052605 | 58 | 68 | 2.0 | 7.0 | 0.00 | 0.00 | 0.00 | 89 | 1010.7 |
| 20260505052425 | 58 | 45 | 3.0 | 7.0 | 0.00 | 0.00 | 0.00 | 89 | 1010.7 |
| 20260505052230 | 57 | 68 | 2.0 | 5.0 | 0.00 | 0.00 | 0.00 | 90 | 1010.6 |
| 20260505052050 | 57 | 22 | 2.0 | 5.0 | 0.00 | 0.00 | 0.00 | 90 | 1010.7 |
| 20260505051910 | 57 | 68 | 2.0 | 5.0 | 0.00 | 0.00 | 0.00 | 91 | 1010.7 |
| 20260505051727 | 57 | 68 | 2.0 | 5.0 | 0.00 | 0.00 | 0.00 | 91 | 1010.6 |
| 20260505051550 | 57 | 45 | 2.0 | 5.0 | 0.00 | 0.00 | 0.00 | 91 | 1010.7 |
| 20260505051450 | 57 | 68 | 2.0 | 5.0 | 0.00 | 0.00 | 0.00 | 91 | 1010.7 |
| 20260505051400 | 57 | 90 | 2.0 | 5.0 | 0.00 | 0.00 | 0.00 | 91 | 1010.7 |
| 20260505051217 | 57 | 68 | 2.0 | 4.0 | 0.00 | 0.00 | 0.00 | 91 | 1010.7 |
| 20260505051033 | 57 | 68 | 2.0 | 2.0 | 0.00 | 0.00 | 0.00 | 91 | 1010.6 |
| 20260505050847 | 57 | 68 | 2.0 | 5.0 | 0.00 | 0.00 | 0.00 | 91 | 1010.6 |
| 20260505050653 | 57 | 45 | 2.0 | 5.0 | 0.00 | 0.00 | 0.00 | 91 | 1010.6 |
| 20260505050500 | 57 | 22 | 2.0 | 5.0 | 0.00 | 0.00 | 0.00 | 91 | 1010.6 |
| 20260505050300 | 57 | 22 | 2.0 | 5.0 | 0.00 | 0.00 | 0.00 | 91 | 1010.6 |
| 20260505050120 | 57 | 90 | 2.0 | 5.0 | 0.00 | 0.00 | 0.00 | 91 | 1010.6 |
| 20260505041708 | 57 | 45 | 1.0 | 3.0 | 0.00 | 0.00 | 0.00 | 91 | 1010.9 |
| 20260505041519 | 57 | 45 | 0.0 | 3.0 | 0.00 | 0.00 | 0.00 | 91 | 1010.9 |
| 20260505041335 | 57 | 22 | 0.0 | 1.0 | 0.00 | 0.00 | 0.00 | 90 | 1011.0 |
| 20260505041150 | 57 | 22 | 0.0 | 2.0 | 0.00 | 0.00 | 0.00 | 90 | 1011.1 |
| 20260505040947 | 57 | 22 | 0.0 | 2.0 | 0.00 | 0.00 | 0.00 | 90 | 1011.1 |
| 20260505040750 | 57 | 22 | 0.0 | 2.0 | 0.00 | 0.00 | 0.00 | 90 | 1011.1 |
| 20260505040605 | 57 | 22 | 1.0 | 2.0 | 0.00 | 0.00 | 0.00 | 90 | 1011.2 |
| 20260505040425 | 57 | 22 | 1.0 | 2.0 | 0.00 | 0.00 | 0.00 | 90 | 1011.1 |
| 20260505040412 | 57 | 22 | 1.0 | 2.0 | 0.00 | 0.00 | 0.00 | 89 | 1011.2 |
| 20260505040244 | 57 | 22 | 1.0 | 2.0 | 0.00 | 0.00 | 0.00 | 89 | 1011.2 |
| 20260505040050 | 57 | 22 | 1.0 | 2.0 | 0.00 | 0.00 | 0.00 | 89 | 1011.2 |
| 20260505035905 | 57 | 22 | 2.0 | 3.0 | 0.00 | 0.00 | 0.00 | 89 | 1011.3 |
| 20260505035725 | 57 | 292 | 2.0 | 3.0 | 0.00 | 0.00 | 0.00 | 89 | 1011.2 |
| 20260505035539 | 57 | 292 | 2.0 | 3.0 | 0.00 | 0.00 | 0.00 | 89 | 1011.3 |
| 20260505035349 | 57 | 270 | 2.0 | 3.0 | 0.00 | 0.00 | 0.00 | 89 | 1011.2 |
| 20260505035153 | 57 | 270 | 1.0 | 3.0 | 0.00 | 0.00 | 0.00 | 89 | 1011.2 |
| 20260505035010 | 57 | 270 | 1.0 | 3.0 | 0.00 | 0.00 | 0.00 | 89 | 1011.2 |
| 20260505034842 | 57 | 45 | 0.0 | 2.0 | 0.00 | 0.00 | 0.00 | 88 | 1011.1 |
| 20260505034830 | 57 | 45 | 0.0 | 2.0 | 0.00 | 0.00 | 0.00 | 88 | 1011.0 |
| 20260505034645 | 57 | 45 | 0.0 | 1.0 | 0.00 | 0.00 | 0.00 | 88 | 1011.0 |
| 20260505034449 | 57 | 45 | 1.0 | 1.0 | 0.00 | 0.00 | 0.00 | 88 | 1011.0 |
| 20260505034255 | 57 | 45 | 1.0 | 1.0 | 0.00 | 0.00 | 0.00 | 87 | 1010.9 |
| 20260505034110 | 57 | 45 | 2.0 | 3.0 | 0.00 | 0.00 | 0.00 | 87 | 1010.9 |
| 20260505033910 | 57 | 45 | 2.0 | 3.0 | 0.00 | 0.00 | 0.00 | 87 | 1010.8 |
| 20260505033725 | 58 | 45 | 2.0 | 6.0 | 0.00 | 0.00 | 0.00 | 86 | 1010.9 |
| 20260505033537 | 58 | 45 | 2.0 | 6.0 | 0.00 | 0.00 | 0.00 | 86 | 1010.9 |
| 20260505033344 | 58 | 22 | 2.0 | 6.0 | 0.00 | 0.00 | 0.00 | 85 | 1010.9 |
| 20260505033145 | 58 | 45 | 1.0 | 4.0 | 0.00 | 0.00 | 0.00 | 86 | 1010.8 |
| 20260505033102 | 58 | 45 | 1.0 | 3.0 | 0.00 | 0.00 | 0.00 | 85 | 1010.8 |
| 20260505032945 | 58 | 45 | 1.0 | 3.0 | 0.00 | 0.00 | 0.00 | 85 | 1010.8 |
| 20260505032756 | 58 | 45 | 1.0 | 5.0 | 0.00 | 0.00 | 0.00 | 84 | 1010.8 |
| 20260505032601 | 58 | 45 | 2.0 | 5.0 | 0.00 | 0.00 | 0.00 | 84 | 1010.8 |
| 20260505032420 | 58 | 45 | 2.0 | 5.0 | 0.00 | 0.00 | 0.00 | 84 | 1010.9 |
| 20260505032235 | 58 | 90 | 2.0 | 6.0 | 0.00 | 0.00 | 0.00 | 84 | 1011.0 |
| 20260505032049 | 58 | 90 | 3.0 | 6.0 | 0.00 | 0.00 | 0.00 | 84 | 1010.9 |
| 20260505031856 | 58 | 112 | 3.0 | 6.0 | 0.00 | 0.00 | 0.00 | 84 | 1010.9 |
| 20260505031717 | 58 | 45 | 3.0 | 6.0 | 0.00 | 0.00 | 0.00 | 84 | 1010.9 |
| 20260505031535 | 58 | 0 | 3.0 | 6.0 | 0.00 | 0.00 | 0.00 | 84 | 1010.9 |
| 20260505031345 | 58 | 45 | 3.0 | 6.0 | 0.00 | 0.00 | 0.00 | 84 | 1010.9 |
| 20260505031156 | 58 | 0 | 3.0 | 5.0 | 0.00 | 0.00 | 0.00 | 85 | 1011.0 |
| 20260505031010 | 58 | 45 | 3.0 | 6.0 | 0.00 | 0.00 | 0.00 | 85 | 1011.0 |
| 20260505030825 | 58 | 22 | 3.0 | 6.0 | 0.00 | 0.00 | 0.00 | 85 | 1011.0 |
| 20260505030640 | 58 | 338 | 3.0 | 6.0 | 0.00 | 0.00 | 0.00 | 84 | 1011.0 |
| 20260505030459 | 58 | 45 | 3.0 | 5.0 | 0.00 | 0.00 | 0.00 | 84 | 1011.1 |
| 20260505030320 | 58 | 22 | 3.0 | 5.0 | 0.00 | 0.00 | 0.00 | 84 | 1011.1 |
| 20260505030140 | 58 | 22 | 3.0 | 5.0 | 0.00 | 0.00 | 0.00 | 84 | 1011.2 |
| 20260505025959 | 58 | 22 | 3.0 | 5.0 | 0.00 | 0.00 | 0.00 | 84 | 1011.2 |
| 20260505025821 | 58 | 68 | 2.0 | 5.0 | 0.00 | 0.00 | 0.00 | 84 | 1011.2 |
| 20260505025634 | 58 | 68 | 2.0 | 5.0 | 0.00 | 0.00 | 0.00 | 84 | 1011.2 |
| 20260505025455 | 58 | 0 | 2.0 | 5.0 | 0.00 | 0.00 | 0.00 | 84 | 1011.2 |
| 20260505025315 | 58 | 45 | 2.0 | 5.0 | 0.00 | 0.00 | 0.00 | 84 | 1011.3 |
| 20260505025120 | 58 | 45 | 2.0 | 5.0 | 0.00 | 0.00 | 0.00 | 84 | 1011.3 |
| 20260505024925 | 58 | 22 | 1.0 | 5.0 | 0.00 | 0.00 | 0.00 | 84 | 1011.3 |
| 20260505024745 | 58 | 22 | 1.0 | 5.0 | 0.00 | 0.00 | 0.00 | 84 | 1011.3 |
| 20260505024548 | 58 | 22 | 1.0 | 5.0 | 0.00 | 0.00 | 0.00 | 84 | 1011.3 |
| 20260505024400 | 58 | 45 | 1.0 | 5.0 | 0.00 | 0.00 | 0.00 | 84 | 1011.3 |
| 20260505024202 | 58 | 45 | 1.0 | 5.0 | 0.00 | 0.00 | 0.00 | 84 | 1011.3 |
| 20260505024025 | 58 | 45 | 1.0 | 5.0 | 0.00 | 0.00 | 0.00 | 84 | 1011.3 |
| 20260505023825 | 58 | 45 | 1.0 | 5.0 | 0.00 | 0.00 | 0.00 | 84 | 1011.3 |
| 20260505023753 | 58 | 22 | 1.0 | 2.0 | 0.00 | 0.00 | 0.00 | 84 | 1011.3 |
| 20260505023634 | 58 | 22 | 1.0 | 2.0 | 0.00 | 0.00 | 0.00 | 84 | 1011.4 |
| 20260505023455 | 58 | 22 | 1.0 | 2.0 | 0.00 | 0.00 | 0.00 | 84 | 1011.4 |
| 20260505023319 | 58 | 22 | 1.0 | 4.0 | 0.00 | 0.00 | 0.00 | 84 | 1011.5 |
| 20260505023119 | 58 | 22 | 1.0 | 5.0 | 0.00 | 0.00 | 0.00 | 84 | 1011.4 |
| 20260505022925 | 58 | 22 | 1.0 | 5.0 | 0.00 | 0.00 | 0.00 | 84 | 1011.5 |
| 20260505022735 | 58 | 22 | 1.0 | 2.0 | 0.00 | 0.00 | 0.00 | 84 | 1011.4 |
| 20260505022555 | 58 | 45 | 1.0 | 3.0 | 0.00 | 0.00 | 0.00 | 84 | 1011.5 |
| 20260505022200 | 58 | 22 | 1.0 | 3.0 | 0.00 | 0.00 | 0.00 | 84 | 1011.6 |
| 20260505022000 | 58 | 315 | 0.0 | 2.0 | 0.00 | 0.00 | 0.00 | 84 | 1011.5 |
| 20260505021947 | 58 | 315 | 1.0 | 2.0 | 0.00 | 0.00 | 0.00 | 84 | 1011.5 |
| 20260505021822 | 58 | 45 | 1.0 | 2.0 | 0.00 | 0.00 | 0.00 | 84 | 1011.5 |
| 20260505021627 | 58 | 45 | 1.0 | 2.0 | 0.00 | 0.00 | 0.00 | 84 | 1011.5 |
| 20260505021437 | 58 | 45 | 1.0 | 2.0 | 0.00 | 0.00 | 0.00 | 83 | 1011.5 |
| 20260505021245 | 58 | 45 | 1.0 | 3.0 | 0.00 | 0.00 | 0.00 | 83 | 1011.6 |
| 20260505021046 | 58 | 45 | 1.0 | 3.0 | 0.00 | 0.00 | 0.00 | 83 | 1011.6 |
| 20260505020855 | 58 | 45 | 1.0 | 3.0 | 0.00 | 0.00 | 0.00 | 83 | 1011.6 |
| 20260505020703 | 58 | 45 | 2.0 | 5.0 | 0.00 | 0.00 | 0.00 | 83 | 1011.7 |
| 20260505020515 | 58 | 45 | 2.0 | 5.0 | 0.00 | 0.00 | 0.00 | 83 | 1011.6 |
| 20260505020325 | 58 | 45 | 2.0 | 5.0 | 0.00 | 0.00 | 0.00 | 83 | 1011.6 |
| 20260505020136 | 58 | 22 | 2.0 | 5.0 | 0.00 | 0.00 | 0.00 | 83 | 1011.6 |
| 20260505015940 | 58 | 22 | 2.0 | 7.0 | 0.00 | 0.00 | 0.00 | 83 | 1011.6 |
| 20260505015745 | 58 | 45 | 2.0 | 7.0 | 0.00 | 0.00 | 0.00 | 83 | 1011.6 |
| 20260505015545 | 58 | 68 | 2.0 | 7.0 | 0.00 | 0.00 | 0.00 | 83 | 1011.6 |
| 20260505015356 | 58 | 68 | 2.0 | 2.0 | 0.00 | 0.00 | 0.00 | 83 | 1011.6 |